KD5YCY Weather Reports


time (UTC)temp
C
wind
direction
speed
KPH
gust
KPH
rain 1hr
cm
rain 24hr
cm
rain mn
cm
humidity
%
barometer
mb
20260510072003 23 150 9.7 17.7 0.00 0.00 0.00 70 939.6
20260510071907 23 125 9.7 17.7 0.00 0.00 0.00 70 939.6
20260510071849 23 174 9.7 16.1 0.00 0.00 0.00 70 939.7
20260510071833 23 157 9.7 16.1 0.00 0.00 0.00 70 939.7
20260510071558 23 188 9.7 16.1 0.00 0.00 0.00 70 939.7
20260510071508 23 159 9.7 20.9 0.00 0.00 0.00 69 939.7
20260510071452 23 160 9.7 20.9 0.00 0.00 0.00 69 939.6
20260510071257 23 159 9.7 20.9 0.00 0.00 0.00 69 939.7
20260510071226 23 161 9.7 20.9 0.00 0.00 0.00 69 939.6
20260510071051 24 0 9.7 20.9 0.00 0.00 0.00 69 939.7
20260510070950 24 169 9.7 20.9 0.00 0.00 0.00 69 939.7
20260510070852 24 182 9.7 20.9 0.00 0.00 0.00 69 939.7
20260510070751 24 159 9.7 20.9 0.00 0.00 0.00 69 939.7
20260510070646 24 172 11.3 20.9 0.00 0.00 0.00 69 939.6
20260510070544 24 181 9.7 20.9 0.00 0.00 0.00 69 939.7
20260510070446 24 149 11.3 20.9 0.00 0.00 0.00 69 939.7
20260510070344 24 167 11.3 20.9 0.00 0.00 0.00 69 939.6
20260510070245 24 153 11.3 20.9 0.00 0.00 0.00 68 939.6
20260510070213 24 130 11.3 20.9 0.00 0.00 0.00 69 939.7
20260510070041 24 180 11.3 20.9 0.00 0.00 0.00 68 939.7
20260510065940 24 180 11.3 20.9 0.00 0.00 0.00 68 939.7
20260510065842 24 139 11.3 20.9 0.00 0.00 0.00 68 939.7
20260510065739 24 159 11.3 20.9 0.00 0.00 0.00 68 939.7
20260510065636 24 157 11.3 20.9 0.00 0.00 0.00 68 939.7
20260510065533 24 122 11.3 20.9 0.00 0.00 0.00 68 939.7
20260510065433 24 148 11.3 20.9 0.00 0.00 0.00 69 939.7
20260510065334 24 162 11.3 20.9 0.00 0.00 0.00 69 939.7
20260510065233 24 174 11.3 20.9 0.00 0.00 0.00 69 939.7
20260510065128 24 178 11.3 20.9 0.00 0.00 0.00 68 939.7
20260510065028 24 177 11.3 20.9 0.00 0.00 0.00 69 939.7
20260510064928 24 192 11.3 20.9 0.00 0.00 0.00 68 939.7
20260510064827 24 183 11.3 20.9 0.00 0.00 0.00 69 939.7
20260510064727 24 168 11.3 20.9 0.00 0.00 0.00 68 939.7
20260510064621 24 174 11.3 20.9 0.00 0.00 0.00 68 939.7
20260510064522 24 192 11.3 20.9 0.00 0.00 0.00 68 939.8
20260510064422 24 167 11.3 20.9 0.00 0.00 0.00 68 939.8
20260510064321 24 180 11.3 20.9 0.00 0.00 0.00 68 939.8
20260510064221 24 175 11.3 20.9 0.00 0.00 0.00 68 939.8
20260510064115 24 176 9.7 20.9 0.00 0.00 0.00 68 939.8
20260510064015 24 180 9.7 20.9 0.00 0.00 0.00 68 939.8
20260510063916 24 181 9.7 20.9 0.00 0.00 0.00 68 939.8
20260510063814 24 196 9.7 20.9 0.00 0.00 0.00 68 939.8
20260510063715 24 181 9.7 17.7 0.00 0.00 0.00 68 939.8
20260510063610 24 154 9.7 17.7 0.00 0.00 0.00 68 939.8
20260510063512 24 174 9.7 17.7 0.00 0.00 0.00 68 939.9
20260510063421 24 169 9.7 17.7 0.00 0.00 0.00 67 939.8
20260510063404 24 171 9.7 17.7 0.00 0.00 0.00 67 939.8
20260510063209 24 171 9.7 17.7 0.00 0.00 0.00 67 939.8
20260510063137 24 191 9.7 17.7 0.00 0.00 0.00 67 939.9
20260510063003 24 172 9.7 17.7 0.00 0.00 0.00 67 939.8
20260510062903 24 175 9.7 17.7 0.00 0.00 0.00 67 939.9
20260510062803 24 173 9.7 17.7 0.00 0.00 0.00 67 939.9
20260510062703 24 183 9.7 17.7 0.00 0.00 0.00 66 939.8
20260510062558 24 150 9.7 17.7 0.00 0.00 0.00 66 939.9
20260510062456 24 176 9.7 17.7 0.00 0.00 0.00 66 939.9
20260510062358 24 159 9.7 17.7 0.00 0.00 0.00 66 939.9
20260510062257 24 156 9.7 17.7 0.00 0.00 0.00 66 939.9
20260510062157 24 164 9.7 17.7 0.00 0.00 0.00 66 939.9
20260510062053 24 146 9.7 17.7 0.00 0.00 0.00 65 939.9
20260510061952 24 161 9.7 20.9 0.00 0.00 0.00 65 939.9
20260510061850 24 150 9.7 20.9 0.00 0.00 0.00 65 939.8
20260510061752 24 181 9.7 20.9 0.00 0.00 0.00 65 939.9
20260510061651 24 157 9.7 20.9 0.00 0.00 0.00 64 939.9
20260510061546 25 173 9.7 20.9 0.00 0.00 0.00 64 939.9
20260510061444 25 169 9.7 20.9 0.00 0.00 0.00 64 939.9
20260510061357 25 165 9.7 20.9 0.00 0.00 0.00 64 939.9
20260510061340 25 147 11.3 20.9 0.00 0.00 0.00 64 939.9
20260510061145 25 178 11.3 20.9 0.00 0.00 0.00 63 939.9
20260510061114 25 162 11.3 27.4 0.00 0.00 0.00 63 939.9
20260510060938 25 154 11.3 27.4 0.00 0.00 0.00 63 939.8
20260510060840 25 167 11.3 27.4 0.00 0.00 0.00 63 939.8
20260510060738 25 162 11.3 27.4 0.00 0.00 0.00 63 939.8
20260510060639 25 154 11.3 27.4 0.00 0.00 0.00 63 939.9
20260510060532 24 120 12.9 27.4 0.00 0.00 0.00 63 939.8
20260510060433 24 162 12.9 27.4 0.00 0.00 0.00 63 939.8
20260510060333 24 155 12.9 27.4 0.00 0.00 0.00 63 939.8
20260510060234 24 186 12.9 27.4 0.00 0.00 0.00 64 939.8
20260510060132 24 169 12.9 20.9 0.00 0.00 0.00 64 939.8
20260510060030 24 161 12.9 20.9 0.00 0.00 0.00 64 939.7
20260510055927 24 142 11.3 20.9 0.00 0.00 0.00 64 939.7
20260510055828 24 122 11.3 19.3 0.00 0.00 0.00 64 939.7
20260510055728 24 168 11.3 19.3 0.00 0.00 0.00 65 939.8
20260510055628 23 142 11.3 19.3 0.00 0.00 0.00 65 939.8
20260510055521 23 161 9.7 19.3 0.00 0.00 0.00 66 939.8
20260510055422 23 146 9.7 17.7 0.00 0.00 0.00 66 939.8
20260510055322 23 161 9.7 17.7 0.00 0.00 0.00 67 939.8
20260510055223 23 121 9.7 17.7 0.00 0.00 0.00 67 939.8
20260510055122 23 162 9.7 16.1 0.00 0.00 0.00 68 939.8
20260510055019 23 173 8.0 16.1 0.00 0.00 0.00 69 939.8
20260510054916 22 153 8.0 16.1 0.00 0.00 0.00 70 939.8
20260510054817 22 157 8.0 16.1 0.00 0.00 0.00 70 939.8
20260510054717 22 173 8.0 16.1 0.00 0.00 0.00 71 939.8
20260510054616 22 198 6.4 14.5 0.00 0.00 0.00 71 939.8
20260510054511 22 179 6.4 14.5 0.00 0.00 0.00 73 939.8
20260510054410 21 159 6.4 14.5 0.00 0.00 0.00 73 939.8
20260510054310 21 178 4.8 14.5 0.00 0.00 0.00 73 939.8
20260510054210 21 130 4.8 12.9 0.00 0.00 0.00 74 939.7
20260510054110 21 183 4.8 11.3 0.00 0.00 0.00 74 939.8
20260510054006 21 140 4.8 9.7 0.00 0.00 0.00 74 939.8
20260510053903 21 165 3.2 9.7 0.00 0.00 0.00 75 939.8
20260510053805 21 173 3.2 8.0 0.00 0.00 0.00 75 939.8
20260510053703 21 169 3.2 8.0 0.00 0.00 0.00 75 939.8
20260510053604 21 171 3.2 8.0 0.00 0.00 0.00 75 939.8
20260510053457 21 182 3.2 6.4 0.00 0.00 0.00 75 939.8
20260510053358 21 164 3.2 6.4 0.00 0.00 0.00 75 939.8
20260510053257 21 166 3.2 6.4 0.00 0.00 0.00 75 939.8
20260510053158 21 161 3.2 6.4 0.00 0.00 0.00 74 939.9
20260510053058 21 170 3.2 8.0 0.00 0.00 0.00 74 939.8
20260510052957 21 167 3.2 8.0 0.00 0.00 0.00 74 939.8
20260510052855 21 162 3.2 8.0 0.00 0.00 0.00 75 939.8
20260510052754 21 153 3.2 8.0 0.00 0.00 0.00 75 939.8
20260510052654 21 163 3.2 8.0 0.00 0.00 0.00 75 939.8
20260510052552 21 157 3.2 8.0 0.00 0.00 0.00 74 939.8
20260510052447 21 144 3.2 8.0 0.00 0.00 0.00 74 939.8
20260510052346 21 151 3.2 8.0 0.00 0.00 0.00 73 939.9
20260510052245 21 151 3.2 8.0 0.00 0.00 0.00 73 939.8
20260510052145 21 157 3.2 6.4 0.00 0.00 0.00 73 939.8
20260510052046 21 156 3.2 6.4 0.00 0.00 0.00 73 939.8
20260510052016 21 148 3.2 8.0 0.00 0.00 0.00 73 939.9
20260510051844 21 151 3.2 8.0 0.00 0.00 0.00 73 939.8
20260510051743 21 151 3.2 8.0 0.00 0.00 0.00 73 939.8
20260510051643 22 150 3.2 8.0 0.00 0.00 0.00 72 939.9
20260510051540 22 149 3.2 8.0 0.00 0.00 0.00 72 939.8
20260510051437 22 142 3.2 8.0 0.00 0.00 0.00 72 939.8
20260510051334 22 153 3.2 8.0 0.00 0.00 0.00 72 939.8
20260510051235 22 159 3.2 8.0 0.00 0.00 0.00 71 939.8
20260510051134 22 155 3.2 8.0 0.00 0.00 0.00 71 939.8
20260510051034 22 153 3.2 8.0 0.00 0.00 0.00 71 939.8
20260510051002 22 147 3.2 8.0 0.00 0.00 0.00 71 939.8
20260510050827 22 157 3.2 8.0 0.00 0.00 0.00 71 939.8
20260510050728 22 158 3.2 8.0 0.00 0.00 0.00 71 939.8
20260510050629 22 161 3.2 8.0 0.00 0.00 0.00 71 939.8
20260510050528 22 161 3.2 8.0 0.00 0.00 0.00 70 939.8
20260510050456 22 159 4.8 8.0 0.00 0.00 0.00 70 939.8
20260510050321 22 156 4.8 8.0 0.00 0.00 0.00 70 939.8
20260510050222 22 159 4.8 8.0 0.00 0.00 0.00 69 939.8
20260510050122 22 161 4.8 8.0 0.00 0.00 0.00 69 939.8
20260510050022 22 157 4.8 8.0 0.00 0.00 0.00 69 939.8
20260510045917 22 159 4.8 8.0 0.00 0.00 0.00 69 939.8
20260510045815 22 165 4.8 8.0 0.00 0.00 0.00 69 939.8
20260510045716 22 152 4.8 8.0 0.00 0.00 0.00 69 939.8
20260510045615 22 163 4.8 8.0 0.00 0.00 0.00 69 939.8
20260510045516 22 145 4.8 9.7 0.00 0.00 0.00 69 939.8
20260510045409 22 148 4.8 9.7 0.00 0.00 0.00 69 939.8
20260510045311 23 144 4.8 9.7 0.00 0.00 0.00 68 939.8
20260510045210 23 145 4.8 9.7 0.00 0.00 0.00 68 939.8
20260510045110 23 142 4.8 9.7 0.00 0.00 0.00 68 939.9
20260510045010 23 151 4.8 9.7 0.00 0.00 0.00 68 939.9
20260510044904 23 145 4.8 9.7 0.00 0.00 0.00 67 939.9
20260510044805 23 153 4.8 9.7 0.00 0.00 0.00 67 939.8
20260510044703 23 146 4.8 9.7 0.00 0.00 0.00 67 939.8
20260510044603 23 153 4.8 9.7 0.00 0.00 0.00 67 939.9
20260510044504 23 147 4.8 9.7 0.00 0.00 0.00 67 939.9
20260510044358 23 137 4.8 9.7 0.00 0.00 0.00 67 939.8
20260510044257 23 136 4.8 9.7 0.00 0.00 0.00 66 939.9
20260510044159 23 130 4.8 9.7 0.00 0.00 0.00 66 939.8
20260510044058 23 157 4.8 9.7 0.00 0.00 0.00 66 939.8
20260510043958 23 140 4.8 12.9 0.00 0.00 0.00 66 939.8
20260510043852 23 131 4.8 12.9 0.00 0.00 0.00 66 939.8
20260510043751 23 146 4.8 12.9 0.00 0.00 0.00 66 939.8
20260510043651 23 163 4.8 12.9 0.00 0.00 0.00 66 939.8
20260510043551 23 153 4.8 12.9 0.00 0.00 0.00 66 939.8
20260510043452 23 171 6.4 12.9 0.00 0.00 0.00 66 939.8
20260510043346 23 149 6.4 14.5 0.00 0.00 0.00 66 939.8
20260510043246 23 134 6.4 14.5 0.00 0.00 0.00 66 939.8
20260510043146 23 144 6.4 14.5 0.00 0.00 0.00 65 939.8
20260510043046 23 173 6.4 14.5 0.00 0.00 0.00 65 939.8
20260510042945 23 149 6.4 14.5 0.00 0.00 0.00 65 939.8
20260510042840 23 151 6.4 14.5 0.00 0.00 0.00 65 939.8
20260510042740 23 153 6.4 14.5 0.00 0.00 0.00 65 939.8
20260510042641 23 155 6.4 14.5 0.00 0.00 0.00 65 939.8
20260510042539 23 142 6.4 14.5 0.00 0.00 0.00 65 939.7
20260510042440 23 121 6.4 14.5 0.00 0.00 0.00 64 939.8
20260510042334 23 106 6.4 14.5 0.00 0.00 0.00 64 939.7
20260510042234 23 159 6.4 16.1 0.00 0.00 0.00 64 939.8
20260510042135 24 117 8.0 16.1 0.00 0.00 0.00 64 939.8
20260510042034 24 157 8.0 16.1 0.00 0.00 0.00 64 939.8
20260510041934 24 158 8.0 16.1 0.00 0.00 0.00 64 939.8
20260510041903 24 118 8.0 16.1 0.00 0.00 0.00 64 939.7
20260510041729 24 157 8.0 16.1 0.00 0.00 0.00 64 939.8
20260510041629 24 153 8.0 16.1 0.00 0.00 0.00 64 939.8
20260510041531 24 171 8.0 16.1 0.00 0.00 0.00 64 939.8
20260510041428 24 134 8.0 16.1 0.00 0.00 0.00 64 939.7
20260510041322 24 122 8.0 16.1 0.00 0.00 0.00 64 939.7
20260510041221 24 184 8.0 16.1 0.00 0.00 0.00 64 939.7
20260510041122 24 157 9.7 19.3 0.00 0.00 0.00 64 939.7
20260510041021 24 158 9.7 19.3 0.00 0.00 0.00 64 939.7
20260510040921 24 141 9.7 19.3 0.00 0.00 0.00 64 939.7
20260510040816 24 128 9.7 19.3 0.00 0.00 0.00 64 939.7
20260510040715 24 116 8.0 19.3 0.00 0.00 0.00 64 939.8
20260510040616 24 105 8.0 19.3 0.00 0.00 0.00 64 939.7
20260510040516 24 141 8.0 19.3 0.00 0.00 0.00 63 939.7
20260510040416 24 166 8.0 19.3 0.00 0.00 0.00 64 939.7
20260510040345 24 120 8.0 19.3 0.00 0.00 0.00 63 939.7
20260510040209 24 131 8.0 16.1 0.00 0.00 0.00 63 939.7
20260510040110 24 150 8.0 16.1 0.00 0.00 0.00 63 939.7
20260510040009 24 159 8.0 16.1 0.00 0.00 0.00 63 939.7
20260510035909 24 136 8.0 16.1 0.00 0.00 0.00 63 939.7
20260510035805 24 150 8.0 16.1 0.00 0.00 0.00 62 939.8
20260510035704 24 144 8.0 16.1 0.00 0.00 0.00 62 939.8
20260510035604 24 150 9.7 16.1 0.00 0.00 0.00 62 939.8
20260510035504 24 146 9.7 16.1 0.00 0.00 0.00 62 939.8
20260510035404 24 133 8.0 16.1 0.00 0.00 0.00 61 939.8
20260510035258 25 114 8.0 16.1 0.00 0.00 0.00 61 939.8
20260510035159 25 155 8.0 24.1 0.00 0.00 0.00 61 939.8
20260510035058 25 115 9.7 24.1 0.00 0.00 0.00 61 939.7
20260510034957 25 130 9.7 24.1 0.00 0.00 0.00 61 939.7
20260510034858 25 117 9.7 24.1 0.00 0.00 0.00 60 939.7
20260510034755 25 111 9.7 24.1 0.00 0.00 0.00 60 939.8
20260510034651 25 144 9.7 24.1 0.00 0.00 0.00 60 939.7
20260510034552 25 146 9.7 24.1 0.00 0.00 0.00 60 939.7
20260510034451 25 133 9.7 24.1 0.00 0.00 0.00 60 939.7
20260510034352 25 158 9.7 24.1 0.00 0.00 0.00 60 939.7
20260510034247 25 121 11.3 24.1 0.00 0.00 0.00 60 939.7
20260510034148 25 133 9.7 22.5 0.00 0.00 0.00 60 939.7
20260510034047 25 161 9.7 20.9 0.00 0.00 0.00 60 939.7
20260510033948 25 128 11.3 20.9 0.00 0.00 0.00 59 939.7
20260510033846 25 153 11.3 20.9 0.00 0.00 0.00 59 939.7
20260510033742 25 165 9.7 20.9 0.00 0.00 0.00 59 939.7
20260510033640 25 163 9.7 20.9 0.00 0.00 0.00 59 939.7
20260510033540 25 134 9.7 20.9 0.00 0.00 0.00 59 939.7
20260510033439 25 157 9.7 20.9 0.00 0.00 0.00 59 939.7
20260510033340 25 151 9.7 20.9 0.00 0.00 0.00 59 939.7
20260510033234 25 143 9.7 20.9 0.00 0.00 0.00 59 939.8
20260510033133 25 154 9.7 20.9 0.00 0.00 0.00 59 939.7
20260510033034 25 144 9.7 20.9 0.00 0.00 0.00 59 939.8
20260510032935 25 139 9.7 20.9 0.00 0.00 0.00 59 939.8
20260510032834 25 128 9.7 20.9 0.00 0.00 0.00 58 939.8
20260510032728 25 161 9.7 20.9 0.00 0.00 0.00 58 939.8
20260510032627 25 170 9.7 19.3 0.00 0.00 0.00 58 939.8
20260510032529 25 137 9.7 19.3 0.00 0.00 0.00 58 939.8
20260510032427 25 170 9.7 19.3 0.00 0.00 0.00 58 939.8
20260510032328 25 153 9.7 19.3 0.00 0.00 0.00 58 939.8
20260510032221 25 167 9.7 19.3 0.00 0.00 0.00 58 939.8
20260510032123 25 167 9.7 20.9 0.00 0.00 0.00 58 939.8
20260510032022 25 144 9.7 20.9 0.00 0.00 0.00 58 939.8
20260510031922 25 143 9.7 20.9 0.00 0.00 0.00 58 939.8
20260510031822 25 123 9.7 20.9 0.00 0.00 0.00 57 939.9
20260510031716 25 155 9.7 20.9 0.00 0.00 0.00 57 939.8
20260510031616 25 150 9.7 20.9 0.00 0.00 0.00 57 939.8
20260510031516 25 151 9.7 20.9 0.00 0.00 0.00 57 939.8
20260510031416 25 137 9.7 20.9 0.00 0.00 0.00 57 939.8
20260510031316 25 155 11.3 20.9 0.00 0.00 0.00 57 939.8
20260510031212 25 173 9.7 20.9 0.00 0.00 0.00 57 939.8
20260510031110 25 139 9.7 19.3 0.00 0.00 0.00 57 939.8
20260510031009 25 190 9.7 19.3 0.00 0.00 0.00 57 939.7
20260510030909 25 154 9.7 20.9 0.00 0.00 0.00 57 939.7
20260510030810 25 159 9.7 20.9 0.00 0.00 0.00 57 939.7
20260510030703 25 160 9.7 20.9 0.00 0.00 0.00 57 939.7
20260510030603 25 161 9.7 20.9 0.00 0.00 0.00 57 939.8
20260510030504 25 142 9.7 20.9 0.00 0.00 0.00 57 939.7
20260510030404 25 142 9.7 20.9 0.00 0.00 0.00 57 939.7
20260510030304 25 117 9.7 20.9 0.00 0.00 0.00 57 939.8
20260510030158 25 155 9.7 20.9 0.00 0.00 0.00 57 939.7
20260510030059 25 174 9.7 20.9 0.00 0.00 0.00 57 939.7
20260510025957 24 128 8.0 17.7 0.00 0.00 0.00 57 939.7
20260510025858 24 160 8.0 17.7 0.00 0.00 0.00 57 939.7
20260510025758 24 171 8.0 17.7 0.00 0.00 0.00 57 939.7
20260510025727 24 119 8.0 17.7 0.00 0.00 0.00 57 939.7
20260510025553 24 157 8.0 17.7 0.00 0.00 0.00 56 939.6
20260510025452 24 136 8.0 14.5 0.00 0.00 0.00 56 939.6
20260510025352 24 151 8.0 14.5 0.00 0.00 0.00 56 939.6
20260510025253 24 128 6.4 14.5 0.00 0.00 0.00 56 939.6
20260510025146 24 161 6.4 12.9 0.00 0.00 0.00 55 939.6
20260510025045 25 136 6.4 12.9 0.00 0.00 0.00 55 939.6
20260510024947 25 141 6.4 12.9 0.00 0.00 0.00 55 939.6
20260510024846 25 137 6.4 12.9 0.00 0.00 0.00 55 939.6
20260510024746 25 128 6.4 12.9 0.00 0.00 0.00 55 939.6
20260510024639 25 147 6.4 12.9 0.00 0.00 0.00 55 939.6
20260510024539 25 141 6.4 12.9 0.00 0.00 0.00 54 939.6
20260510024440 25 134 6.4 12.9 0.00 0.00 0.00 54 939.6
20260510024339 25 152 6.4 12.9 0.00 0.00 0.00 54 939.5
20260510024240 25 166 6.4 12.9 0.00 0.00 0.00 54 939.5
20260510024135 25 107 6.4 12.9 0.00 0.00 0.00 53 939.5
20260510024035 25 124 6.4 12.9 0.00 0.00 0.00 53 939.5
20260510023935 25 178 6.4 12.9 0.00 0.00 0.00 53 939.5
20260510023835 25 151 6.4 12.9 0.00 0.00 0.00 53 939.5
20260510023734 25 184 6.4 12.9 0.00 0.00 0.00 52 939.4
20260510023627 25 148 6.4 12.9 0.00 0.00 0.00 52 939.4
20260510023528 25 164 6.4 12.9 0.00 0.00 0.00 52 939.5
20260510023428 25 128 6.4 12.9 0.00 0.00 0.00 52 939.5
20260510023327 25 120 6.4 12.9 0.00 0.00 0.00 51 939.4
20260510023228 26 139 8.0 12.9 0.00 0.00 0.00 51 939.4
20260510023121 26 144 8.0 14.5 0.00 0.00 0.00 51 939.4
20260510023022 26 138 8.0 14.5 0.00 0.00 0.00 51 939.4
20260510022922 26 142 8.0 14.5 0.00 0.00 0.00 51 939.3
20260510022821 26 146 8.0 14.5 0.00 0.00 0.00 51 939.3
20260510022722 26 155 8.0 14.5 0.00 0.00 0.00 50 939.3
20260510022616 26 186 8.0 16.1 0.00 0.00 0.00 50 939.4
20260510022515 26 166 8.0 16.1 0.00 0.00 0.00 50 939.3
20260510022415 26 132 8.0 16.1 0.00 0.00 0.00 49 939.4
20260510022316 26 137 8.0 16.1 0.00 0.00 0.00 49 939.4
20260510022216 26 119 8.0 16.1 0.00 0.00 0.00 49 939.4
20260510022009 26 121 6.4 16.1 0.00 0.00 0.00 49 939.3
20260510021910 26 127 6.4 16.1 0.00 0.00 0.00 49 939.3
20260510021809 26 167 6.4 16.1 0.00 0.00 0.00 49 939.3
20260510021710 26 175 6.4 16.1 0.00 0.00 0.00 49 939.3
20260510021604 26 191 6.4 14.5 0.00 0.00 0.00 49 939.2
20260510021504 26 165 6.4 14.5 0.00 0.00 0.00 49 939.2
20260510021405 26 135 6.4 14.5 0.00 0.00 0.00 49 939.2
20260510021303 26 163 6.4 14.5 0.00 0.00 0.00 49 939.2
20260510021222 26 159 8.0 16.1 0.00 0.00 0.00 49 939.2
20260510021058 26 161 8.0 16.1 0.00 0.00 0.00 49 939.1
20260510020957 26 130 8.0 16.1 0.00 0.00 0.00 49 939.1
20260510020858 26 138 8.0 16.1 0.00 0.00 0.00 48 939.1
20260510020757 26 146 6.4 16.1 0.00 0.00 0.00 49 939.1
20260510020658 26 173 6.4 16.1 0.00 0.00 0.00 49 939.1
20260510020551 26 156 8.0 16.1 0.00 0.00 0.00 49 939.1
20260510020451 26 158 8.0 16.1 0.00 0.00 0.00 49 939.0
20260510020352 26 179 8.0 16.1 0.00 0.00 0.00 49 939.0
20260510020252 26 125 8.0 16.1 0.00 0.00 0.00 49 938.9
20260510020152 26 155 8.0 16.1 0.00 0.00 0.00 49 938.9
20260510020048 26 138 8.0 16.1 0.00 0.00 0.00 49 938.9
20260510015945 26 136 8.0 16.1 0.00 0.00 0.00 49 938.9
20260510015845 26 142 8.0 16.1 0.00 0.00 0.00 49 938.9
20260510015746 26 163 8.0 16.1 0.00 0.00 0.00 49 938.8
20260510015646 26 134 8.0 16.1 0.00 0.00 0.00 49 938.8
20260510015540 26 133 8.0 16.1 0.00 0.00 0.00 49 938.8
20260510015440 26 130 8.0 16.1 0.00 0.00 0.00 49 938.8
20260510015340 26 171 8.0 16.1 0.00 0.00 0.00 49 938.8
20260510015241 26 122 6.4 16.1 0.00 0.00 0.00 49 938.7
20260510015139 26 163 6.4 16.1 0.00 0.00 0.00 49 938.7
20260510015034 26 103 6.4 16.1 0.00 0.00 0.00 49 938.8
20260510014934 26 137 6.4 16.1 0.00 0.00 0.00 48 938.8
20260510014834 26 151 6.4 16.1 0.00 0.00 0.00 48 938.8
20260510014734 26 133 6.4 12.9 0.00 0.00 0.00 48 938.8
20260510014634 26 169 6.4 12.9 0.00 0.00 0.00 49 938.7
20260510014530 26 144 6.4 9.7 0.00 0.00 0.00 48 938.8
20260510014427 26 153 6.4 9.7 0.00 0.00 0.00 48 938.8
20260510014328 26 137 6.4 9.7 0.00 0.00 0.00 47 938.8
20260510014228 27 130 6.4 11.3 0.00 0.00 0.00 48 938.8
20260510014127 27 152 6.4 11.3 0.00 0.00 0.00 48 938.8
20260510014022 27 134 6.4 11.3 0.00 0.00 0.00 47 938.8
20260510013922 27 157 6.4 11.3 0.00 0.00 0.00 46 938.8
20260510013822 27 148 6.4 11.3 0.00 0.00 0.00 46 938.8
20260510013721 27 174 6.4 11.3 0.00 0.00 0.00 46 938.8
20260510013622 27 174 6.4 11.3 0.00 0.00 0.00 46 938.8
20260510013519 27 156 6.4 11.3 0.00 0.00 0.00 46 938.8
20260510013420 27 154 6.4 11.3 0.00 0.00 0.00 45 938.7
20260510013317 27 173 6.4 11.3 0.00 0.00 0.00 45 938.8
20260510013225 27 166 6.4 11.3 0.00 0.00 0.00 45 938.7
20260510013207 27 152 6.4 11.3 0.00 0.00 0.00 45 938.7
20260510013018 27 162 6.4 11.3 0.00 0.00 0.00 45 938.7
20260510012917 27 169 6.4 9.7 0.00 0.00 0.00 45 938.7
20260510012817 27 171 6.4 9.7 0.00 0.00 0.00 45 938.7
20260510012726 27 168 6.4 9.7 0.00 0.00 0.00 44 938.7
20260510012709 27 132 6.4 9.7 0.00 0.00 0.00 44 938.7
20260510012517 27 171 6.4 9.7 0.00 0.00 0.00 44 938.7
20260510012419 28 159 6.4 9.7 0.00 0.00 0.00 44 938.7
20260510012317 28 169 6.4 9.7 0.00 0.00 0.00 44 938.6
20260510012224 28 150 6.4 9.7 0.00 0.00 0.00 43 938.6
20260510012206 28 155 6.4 9.7 0.00 0.00 0.00 43 938.7
20260510012016 28 142 6.4 9.7 0.00 0.00 0.00 43 938.6
20260510011915 28 170 6.4 12.9 0.00 0.00 0.00 43 938.6
20260510011815 28 201 6.4 12.9 0.00 0.00 0.00 43 938.6
20260510011726 28 176 6.4 12.9 0.00 0.00 0.00 43 938.6
20260510011706 28 144 6.4 12.9 0.00 0.00 0.00 42 938.6
20260510011516 28 165 6.4 12.9 0.00 0.00 0.00 42 938.6
20260510011414 28 159 6.4 12.9 0.00 0.00 0.00 42 938.6
20260510011315 28 184 6.4 12.9 0.00 0.00 0.00 42 938.6
20260510011214 28 155 6.4 12.9 0.00 0.00 0.00 42 938.6
20260510011116 28 148 6.4 12.9 0.00 0.00 0.00 42 938.6
20260510011016 28 161 6.4 12.9 0.00 0.00 0.00 41 938.6
20260510010916 29 158 6.4 11.3 0.00 0.00 0.00 41 938.6
20260510010815 29 169 6.4 11.3 0.00 0.00 0.00 42 938.6
20260510010715 29 167 6.4 11.3 0.00 0.00 0.00 41 938.6
20260510010615 29 163 6.4 11.3 0.00 0.00 0.00 41 938.6
20260510010516 29 162 6.4 9.7 0.00 0.00 0.00 41 938.6
20260510010411 29 161 6.4 11.3 0.00 0.00 0.00 40 938.6
20260510010311 29 178 6.4 11.3 0.00 0.00 0.00 40 938.6
20260510010212 29 171 6.4 11.3 0.00 0.00 0.00 40 938.6
20260510010111 30 169 6.4 11.3 0.00 0.00 0.00 40 938.6
20260510010010 30 163 6.4 11.3 0.00 0.00 0.00 40 938.6
20260510005912 30 165 6.4 11.3 0.00 0.00 0.00 39 938.6
20260510005810 30 176 6.4 11.3 0.00 0.00 0.00 40 938.6
20260510005712 30 155 6.4 11.3 0.00 0.00 0.00 39 938.6
20260510005612 30 169 6.4 11.3 0.00 0.00 0.00 39 938.6
20260510005512 30 175 6.4 11.3 0.00 0.00 0.00 39 938.6
20260510005411 30 179 6.4 11.3 0.00 0.00 0.00 39 938.6
20260510005311 30 169 6.4 11.3 0.00 0.00 0.00 38 938.6
20260510005211 30 185 6.4 11.3 0.00 0.00 0.00 39 938.6
20260510005112 30 193 6.4 11.3 0.00 0.00 0.00 38 938.6
20260510005012 30 181 6.4 11.3 0.00 0.00 0.00 38 938.6
20260510004911 30 186 6.4 11.3 0.00 0.00 0.00 38 938.6
20260510004811 30 186 6.4 11.3 0.00 0.00 0.00 38 938.7
20260510004712 30 150 6.4 11.3 0.00 0.00 0.00 37 938.6
20260510004612 30 168 6.4 11.3 0.00 0.00 0.00 38 938.6
20260510004507 30 176 6.4 11.3 0.00 0.00 0.00 37 938.6
20260510004406 30 160 6.4 11.3 0.00 0.00 0.00 37 938.6
20260510004308 30 192 6.4 16.1 0.00 0.00 0.00 37 938.6
20260510004207 30 135 6.4 16.1 0.00 0.00 0.00 37 938.6
20260510004109 30 165 6.4 16.1 0.00 0.00 0.00 37 938.6
20260510004007 31 154 6.4 16.1 0.00 0.00 0.00 37 938.6
20260510003941 31 183 8.0 16.1 0.00 0.00 0.00 37 938.5
20260510003808 31 165 8.0 16.1 0.00 0.00 0.00 36 938.5
20260510003720 31 155 8.0 16.1 0.00 0.00 0.00 36 938.5
20260510003705 31 182 8.0 16.1 0.00 0.00 0.00 37 938.5
20260510003507 31 155 8.0 16.1 0.00 0.00 0.00 36 938.5
20260510003407 31 165 8.0 16.1 0.00 0.00 0.00 36 938.5
20260510003307 31 157 8.0 12.9 0.00 0.00 0.00 35 938.5
20260510003207 31 169 8.0 12.9 0.00 0.00 0.00 36 938.5
20260510003106 31 194 8.0 12.9 0.00 0.00 0.00 36 938.5
20260510003007 31 187 8.0 16.1 0.00 0.00 0.00 36 938.5
20260510002906 31 156 8.0 16.1 0.00 0.00 0.00 35 938.6
20260510002807 31 161 8.0 16.1 0.00 0.00 0.00 35 938.6
20260510002708 31 181 8.0 16.1 0.00 0.00 0.00 35 938.6
20260510002604 31 161 8.0 16.1 0.00 0.00 0.00 35 938.6
20260510002504 31 156 8.0 16.1 0.00 0.00 0.00 34 938.6
20260510002404 31 186 8.0 16.1 0.00 0.00 0.00 34 938.6
20260510002306 31 183 8.0 16.1 0.00 0.00 0.00 33 938.6
20260510002220 31 152 8.0 16.1 0.00 0.00 0.00 34 938.6
20260510002204 31 153 8.0 16.1 0.00 0.00 0.00 35 938.6
20260510002004 31 194 8.0 17.7 0.00 0.00 0.00 34 938.6
20260510001903 31 196 8.0 17.7 0.00 0.00 0.00 33 938.6
20260510001803 31 186 8.0 17.7 0.00 0.00 0.00 35 938.6
20260510001721 31 190 8.0 17.7 0.00 0.00 0.00 34 938.6
20260510001704 31 159 8.0 17.7 0.00 0.00 0.00 34 938.6
20260510001503 31 205 9.7 17.7 0.00 0.00 0.00 34 938.6
20260510001403 31 190 9.7 17.7 0.00 0.00 0.00 35 938.6
20260510001303 31 184 9.7 17.7 0.00 0.00 0.00 34 938.6
20260510001204 31 180 8.0 17.7 0.00 0.00 0.00 34 938.6
20260510001104 31 166 8.0 17.7 0.00 0.00 0.00 34 938.6
20260510001003 31 187 8.0 16.1 0.00 0.00 0.00 35 938.6
20260510000903 31 168 8.0 16.1 0.00 0.00 0.00 34 938.6
20260510000804 31 192 9.7 16.1 0.00 0.00 0.00 34 938.6
20260510000659 31 172 9.7 17.7 0.00 0.00 0.00 36 938.6
20260510000500 31 208 9.7 17.7 0.00 0.00 0.00 35 938.6
20260510000359 31 192 11.3 17.7 0.00 0.00 0.00 34 938.6
20260510000259 31 146 11.3 17.7 0.00 0.00 0.00 35 938.6
20260510000159 31 182 11.3 17.7 0.00 0.00 0.00 34 938.6
20260510000103 31 180 11.3 17.7 0.00 0.00 0.00 34 938.6
20260509235959 31 137 11.3 17.7 0.00 0.00 0.00 34 938.6
20260509235900 31 192 11.3 17.7 0.00 0.00 0.00 35 938.6
20260509235759 31 191 11.3 17.7 0.00 0.00 0.00 35 938.6
20260509235700 31 184 9.7 17.7 0.00 0.00 0.00 34 938.6
20260509235459 31 183 9.7 17.7 0.00 0.00 0.00 34 938.6
20260509235400 31 189 9.7 19.3 0.00 0.00 0.00 34 938.6
20260509235259 31 181 9.7 19.3 0.00 0.00 0.00 35 938.6
20260509235200 31 202 9.7 19.3 0.00 0.00 0.00 36 938.6
20260509234959 31 221 11.3 19.3 0.00 0.00 0.00 32 938.7
20260509234900 31 206 11.3 19.3 0.00 0.00 0.00 33 938.6
20260509234754 31 219 11.3 19.3 0.00 0.00 0.00 33 938.6
20260509234653 32 192 11.3 19.3 0.00 0.00 0.00 34 938.6
20260509234553 32 236 11.3 19.3 0.00 0.00 0.00 33 938.6
20260509234452 32 203 11.3 19.3 0.00 0.00 0.00 32 938.6
20260509234353 32 184 11.3 19.3 0.00 0.00 0.00 32 938.6
20260509234248 32 185 11.3 19.3 0.00 0.00 0.00 32 938.6
20260509234149 32 203 11.3 19.3 0.00 0.00 0.00 32 938.6
20260509234049 32 205 9.7 17.7 0.00 0.00 0.00 33 938.6
20260509233948 32 219 9.7 17.7 0.00 0.00 0.00 34 938.6
20260509233847 32 240 9.7 17.7 0.00 0.00 0.00 33 938.6
20260509233743 32 175 9.7 17.7 0.00 0.00 0.00 34 938.6
20260509233643 32 194 9.7 17.7 0.00 0.00 0.00 33 938.6
20260509233542 32 201 9.7 17.7 0.00 0.00 0.00 32 938.6
20260509233441 32 200 9.7 17.7 0.00 0.00 0.00 34 938.6
20260509233341 32 188 9.7 17.7 0.00 0.00 0.00 34 938.6
20260509233236 32 190 8.0 17.7 0.00 0.00 0.00 32 938.6
20260509233206 32 222 8.0 17.7 0.00 0.00 0.00 34 938.6
20260509233036 32 215 8.0 17.7 0.00 0.00 0.00 32 938.7
20260509232934 32 202 8.0 17.7 0.00 0.00 0.00 34 938.6
20260509232835 32 196 8.0 17.7 0.00 0.00 0.00 34 938.7
20260509232729 32 200 8.0 17.7 0.00 0.00 0.00 35 938.6
20260509232631 32 223 8.0 17.7 0.00 0.00 0.00 35 938.6
20260509232530 32 193 8.0 17.7 0.00 0.00 0.00 35 938.6
20260509232430 32 199 8.0 16.1 0.00 0.00 0.00 33 938.6
20260509232329 32 157 8.0 16.1 0.00 0.00 0.00 35 938.6
20260509232226 32 161 8.0 16.1 0.00 0.00 0.00 35 938.6
20260509232126 32 153 8.0 16.1 0.00 0.00 0.00 35 938.6
20260509232025 32 171 8.0 16.1 0.00 0.00 0.00 37 938.7
20260509231926 32 159 8.0 16.1 0.00 0.00 0.00 35 938.7
20260509231824 32 145 6.4 16.1 0.00 0.00 0.00 33 938.7
20260509231719 32 177 6.4 16.1 0.00 0.00 0.00 34 938.6
20260509231619 32 180 6.4 16.1 0.00 0.00 0.00 33 938.7
20260509231519 32 186 6.4 17.7 0.00 0.00 0.00 34 938.7
20260509231420 32 204 4.8 17.7 0.00 0.00 0.00 34 938.6
20260509231317 32 227 6.4 17.7 0.00 0.00 0.00 33 938.6
20260509231210 32 196 6.4 17.7 0.00 0.00 0.00 34 938.7
20260509231112 32 242 8.0 17.7 0.00 0.00 0.00 34 938.7
20260509231010 32 236 9.7 20.9 0.00 0.00 0.00 34 938.7
20260509230911 32 235 9.7 20.9 0.00 0.00 0.00 34 938.7
20260509230811 32 234 9.7 20.9 0.00 0.00 0.00 34 938.7
20260509230706 32 257 11.3 20.9 0.00 0.00 0.00 33 938.7
20260509230607 32 196 9.7 20.9 0.00 0.00 0.00 35 938.7
20260509230506 32 203 11.3 20.9 0.00 0.00 0.00 34 938.7
20260509230406 32 190 11.3 20.9 0.00 0.00 0.00 34 938.7
20260509230305 32 192 11.3 20.9 0.00 0.00 0.00 34 938.7
20260509230200 32 192 11.3 20.9 0.00 0.00 0.00 33 938.7
20260509230100 32 200 9.7 20.9 0.00 0.00 0.00 34 938.8
20260509225959 32 190 9.7 16.1 0.00 0.00 0.00 34 938.7
20260509225940 32 206 9.7 16.1 0.00 0.00 0.00 33 938.7
20260509225759 32 215 9.7 16.1 0.00 0.00 0.00 33 938.7
20260509225713 32 201 9.7 16.1 0.00 0.00 0.00 34 938.7
20260509225554 32 221 9.7 16.1 0.00 0.00 0.00 33 938.7
20260509225454 32 166 9.7 16.1 0.00 0.00 0.00 33 938.7
20260509225353 32 183 8.0 16.1 0.00 0.00 0.00 32 938.8
20260509225253 32 188 8.0 16.1 0.00 0.00 0.00 34 938.7
20260509225210 32 197 8.0 16.1 0.00 0.00 0.00 34 938.7
20260509225049 32 194 8.0 16.1 0.00 0.00 0.00 33 938.7
20260509224948 32 117 8.0 16.1 0.00 0.00 0.00 35 938.8
20260509224850 32 182 8.0 16.1 0.00 0.00 0.00 35 938.8
20260509224747 32 180 8.0 16.1 0.00 0.00 0.00 34 938.8
20260509224644 32 194 8.0 17.7 0.00 0.00 0.00 34 938.8
20260509224540 32 184 8.0 17.7 0.00 0.00 0.00 35 938.8
20260509224441 32 231 8.0 17.7 0.00 0.00 0.00 32 938.7
20260509224340 32 240 8.0 17.7 0.00 0.00 0.00 33 938.7
20260509224241 32 211 8.0 17.7 0.00 0.00 0.00 34 938.7
20260509224134 32 202 8.0 17.7 0.00 0.00 0.00 30 938.7
20260509224035 32 175 8.0 17.7 0.00 0.00 0.00 34 938.7
20260509223935 32 209 9.7 17.7 0.00 0.00 0.00 32 938.7
20260509223833 32 198 9.7 17.7 0.00 0.00 0.00 33 938.7
20260509223733 32 190 9.7 17.7 0.00 0.00 0.00 33 938.7
20260509223626 32 211 9.7 17.7 0.00 0.00 0.00 35 938.7
20260509223528 32 205 8.0 17.7 0.00 0.00 0.00 36 938.6
20260509223427 32 224 9.7 17.7 0.00 0.00 0.00 34 938.6
20260509223327 32 171 9.7 17.7 0.00 0.00 0.00 32 938.6
20260509223226 32 168 9.7 17.7 0.00 0.00 0.00 33 938.7
20260509223121 32 240 9.7 20.9 0.00 0.00 0.00 32 938.7
20260509223022 32 227 9.7 20.9 0.00 0.00 0.00 35 938.7
20260509222922 32 186 9.7 20.9 0.00 0.00 0.00 35 938.6
20260509222821 32 195 9.7 20.9 0.00 0.00 0.00 33 938.6
20260509222721 32 178 9.7 20.9 0.00 0.00 0.00 35 938.7
20260509222615 32 165 9.7 20.9 0.00 0.00 0.00 34 938.7
20260509222516 32 213 9.7 20.9 0.00 0.00 0.00 33 938.7
20260509222415 32 198 9.7 20.9 0.00 0.00 0.00 33 938.7
20260509222316 32 207 9.7 20.9 0.00 0.00 0.00 37 938.7
20260509222215 32 185 9.7 20.9 0.00 0.00 0.00 35 938.7
20260509222144 32 178 9.7 19.3 0.00 0.00 0.00 35 938.7
20260509222009 32 219 9.7 19.3 0.00 0.00 0.00 34 938.7
20260509221909 32 207 9.7 19.3 0.00 0.00 0.00 35 938.7
20260509221810 32 211 11.3 19.3 0.00 0.00 0.00 34 938.7
20260509221708 32 158 11.3 24.1 0.00 0.00 0.00 33 938.7
20260509221604 32 166 11.3 24.1 0.00 0.00 0.00 36 938.7
20260509221504 32 218 11.3 24.1 0.00 0.00 0.00 36 938.7
20260509221404 32 208 11.3 24.1 0.00 0.00 0.00 34 938.7
20260509221302 32 188 12.9 24.1 0.00 0.00 0.00 35 938.7
20260509221203 32 207 12.9 24.1 0.00 0.00 0.00 34 938.7
20260509221058 32 192 11.3 24.1 0.00 0.00 0.00 37 938.7
20260509220958 32 184 11.3 24.1 0.00 0.00 0.00 34 938.7
20260509220857 32 192 11.3 24.1 0.00 0.00 0.00 34 938.7
20260509220758 32 155 11.3 24.1 0.00 0.00 0.00 35 938.7
20260509220657 32 178 11.3 20.9 0.00 0.00 0.00 34 938.7
20260509220552 32 209 11.3 20.9 0.00 0.00 0.00 36 938.7
20260509220451 32 199 11.3 20.9 0.00 0.00 0.00 35 938.7
20260509220351 32 215 9.7 20.9 0.00 0.00 0.00 36 938.7
20260509220252 32 196 9.7 20.9 0.00 0.00 0.00 35 938.7
20260509220151 32 183 9.7 20.9 0.00 0.00 0.00 37 938.7
20260509220046 32 178 9.7 20.9 0.00 0.00 0.00 36 938.7
20260509215944 32 157 9.7 20.9 0.00 0.00 0.00 35 938.7
20260509215846 32 134 9.7 20.9 0.00 0.00 0.00 37 938.7
20260509215745 32 132 9.7 17.7 0.00 0.00 0.00 36 938.7
20260509215645 32 157 9.7 17.7 0.00 0.00 0.00 34 938.7
20260509215540 32 123 9.7 20.9 0.00 0.00 0.00 36 938.8
20260509215441 32 178 11.3 20.9 0.00 0.00 0.00 35 938.7
20260509215341 32 138 11.3 22.5 0.00 0.00 0.00 37 938.7
20260509215241 32 185 11.3 22.5 0.00 0.00 0.00 37 938.8
20260509215139 32 145 11.3 22.5 0.00 0.00 0.00 35 938.8
20260509215035 32 174 11.3 22.5 0.00 0.00 0.00 37 938.8
20260509214934 32 158 11.3 22.5 0.00 0.00 0.00 37 938.8
20260509214832 32 169 11.3 22.5 0.00 0.00 0.00 35 938.8
20260509214733 32 182 11.3 22.5 0.00 0.00 0.00 35 938.8
20260509214633 32 165 11.3 22.5 0.00 0.00 0.00 36 938.8
20260509214602 32 203 11.3 22.5 0.00 0.00 0.00 37 938.8
20260509214426 32 180 11.3 22.5 0.00 0.00 0.00 38 938.8
20260509214327 32 137 11.3 20.9 0.00 0.00 0.00 39 938.8
20260509214228 32 193 11.3 20.9 0.00 0.00 0.00 36 938.8
20260509214127 32 157 11.3 20.9 0.00 0.00 0.00 35 938.8
20260509214022 32 155 11.3 20.9 0.00 0.00 0.00 37 938.8
20260509213921 32 173 11.3 22.5 0.00 0.00 0.00 35 938.9
20260509213822 32 155 11.3 22.5 0.00 0.00 0.00 35 938.9
20260509213721 32 165 11.3 22.5 0.00 0.00 0.00 35 939.0
20260509213621 32 144 11.3 22.5 0.00 0.00 0.00 35 938.9
20260509213515 32 136 11.3 22.5 0.00 0.00 0.00 37 938.9
20260509213416 32 192 11.3 22.5 0.00 0.00 0.00 37 938.9
20260509213315 32 190 11.3 22.5 0.00 0.00 0.00 36 939.0
20260509213216 32 173 9.7 22.5 0.00 0.00 0.00 35 939.0
20260509213115 32 116 9.7 22.5 0.00 0.00 0.00 36 939.0
20260509213010 32 186 9.7 22.5 0.00 0.00 0.00 39 938.9
20260509212910 32 213 9.7 19.3 0.00 0.00 0.00 38 939.0
20260509212809 32 189 9.7 19.3 0.00 0.00 0.00 40 939.0
20260509212710 32 215 9.7 19.3 0.00 0.00 0.00 35 939.0
20260509212609 32 202 9.7 20.9 0.00 0.00 0.00 35 939.0
20260509212504 32 192 9.7 20.9 0.00 0.00 0.00 35 938.9
20260509212403 32 200 9.7 20.9 0.00 0.00 0.00 37 938.9
20260509212305 32 235 9.7 20.9 0.00 0.00 0.00 40 939.0
20260509212202 32 195 9.7 20.9 0.00 0.00 0.00 39 939.0
20260509212104 32 192 11.3 20.9 0.00 0.00 0.00 41 939.0
20260509211958 32 193 11.3 22.5 0.00 0.00 0.00 38 939.0
20260509211900 32 186 9.7 22.5 0.00 0.00 0.00 37 939.1
20260509211758 32 196 9.7 22.5 0.00 0.00 0.00 37 939.1
20260509211700 32 215 9.7 22.5 0.00 0.00 0.00 38 939.1
20260509211557 32 201 9.7 22.5 0.00 0.00 0.00 39 939.1
20260509211454 32 193 9.7 22.5 0.00 0.00 0.00 39 939.2
20260509211350 32 200 9.7 22.5 0.00 0.00 0.00 40 939.2
20260509211251 32 186 8.0 22.5 0.00 0.00 0.00 38 939.2
20260509211150 32 186 8.0 22.5 0.00 0.00 0.00 38 939.2
20260509211051 32 191 8.0 19.3 0.00 0.00 0.00 39 939.2
20260509211020 32 189 8.0 14.5 0.00 0.00 0.00 41 939.2
20260509210844 32 189 9.7 22.5 0.00 0.00 0.00 41 939.2
20260509210746 32 221 9.7 22.5 0.00 0.00 0.00 38 939.3
20260509210644 32 194 9.7 22.5 0.00 0.00 0.00 36 939.3
20260509210545 32 160 8.0 22.5 0.00 0.00 0.00 38 939.3
20260509210439 32 155 8.0 22.5 0.00 0.00 0.00 36 939.3
20260509210340 32 176 8.0 22.5 0.00 0.00 0.00 36 939.3
20260509210239 32 117 9.7 22.5 0.00 0.00 0.00 37 939.4
20260509210139 32 171 9.7 22.5 0.00 0.00 0.00 37 939.4
20260509210039 32 153 9.7 22.5 0.00 0.00 0.00 37 939.4
20260509210006 32 167 9.7 22.5 0.00 0.00 0.00 38 939.5
20260509205832 32 189 9.7 22.5 0.00 0.00 0.00 37 939.5
20260509205733 32 186 11.3 22.5 0.00 0.00 0.00 37 939.5
20260509205632 32 240 11.3 22.5 0.00 0.00 0.00 36 939.5
20260509205533 32 166 11.3 22.5 0.00 0.00 0.00 37 939.5
20260509205502 32 163 11.3 22.5 0.00 0.00 0.00 37 939.5
20260509205329 32 184 11.3 22.5 0.00 0.00 0.00 37 939.5
20260509205229 32 188 9.7 22.5 0.00 0.00 0.00 39 939.5
20260509205130 32 238 9.7 22.5 0.00 0.00 0.00 38 939.6
20260509205027 32 137 9.7 22.5 0.00 0.00 0.00 38 939.6
20260509204920 32 187 9.7 22.5 0.00 0.00 0.00 38 939.6
20260509204820 32 178 9.7 20.9 0.00 0.00 0.00 39 939.6
20260509204731 32 107 9.7 20.9 0.00 0.00 0.00 39 939.6
20260509204716 32 101 9.7 20.9 0.00 0.00 0.00 39 939.6
20260509204521 32 225 9.7 20.9 0.00 0.00 0.00 40 939.6
20260509204450 32 205 9.7 20.9 0.00 0.00 0.00 40 939.7
20260509204317 32 198 8.0 20.9 0.00 0.00 0.00 40 939.7
20260509204217 32 184 8.0 20.9 0.00 0.00 0.00 40 939.7
20260509204117 32 189 8.0 20.9 0.00 0.00 0.00 39 939.8
20260509204015 32 190 9.7 20.9 0.00 0.00 0.00 39 939.7
20260509203909 32 190 8.0 19.3 0.00 0.00 0.00 39 939.7
20260509203809 32 203 8.0 19.3 0.00 0.00 0.00 42 939.7
20260509203709 32 210 9.7 20.9 0.00 0.00 0.00 38 939.7
20260509203610 32 202 9.7 20.9 0.00 0.00 0.00 41 939.8
20260509203509 32 205 11.3 20.9 0.00 0.00 0.00 41 939.8
20260509203404 32 188 11.3 20.9 0.00 0.00 0.00 37 939.8
20260509203302 32 176 11.3 20.9 0.00 0.00 0.00 38 939.8
20260509203204 32 164 11.3 20.9 0.00 0.00 0.00 38 939.9
20260509203102 32 180 12.9 20.9 0.00 0.00 0.00 39 939.9
20260509203003 32 92 12.9 20.9 0.00 0.00 0.00 38 939.9
20260509202857 32 138 12.9 20.9 0.00 0.00 0.00 38 939.9
20260509202756 32 155 12.9 22.5 0.00 0.00 0.00 39 940.0
20260509202657 32 196 11.3 22.5 0.00 0.00 0.00 41 940.0
20260509202556 32 200 11.3 22.5 0.00 0.00 0.00 41 939.9
20260509202457 32 190 11.3 22.5 0.00 0.00 0.00 40 940.0
20260509202351 32 177 9.7 22.5 0.00 0.00 0.00 42 940.0
20260509202251 32 183 9.7 22.5 0.00 0.00 0.00 39 940.0
20260509202151 32 154 9.7 22.5 0.00 0.00 0.00 38 940.0
20260509202051 32 176 9.7 22.5 0.00 0.00 0.00 38 940.0
20260509201951 32 151 9.7 22.5 0.00 0.00 0.00 39 940.1
20260509201848 32 183 8.0 22.5 0.00 0.00 0.00 39 940.0
20260509201746 32 250 8.0 20.9 0.00 0.00 0.00 39 940.0
20260509201647 32 170 9.7 20.9 0.00 0.00 0.00 39 940.1
20260509201547 32 213 9.7 20.9 0.00 0.00 0.00 40 940.1
20260509201445 32 211 11.3 20.9 0.00 0.00 0.00 39 940.1
20260509201341 32 186 11.3 20.9 0.00 0.00 0.00 42 940.1
20260509201238 32 214 11.3 20.9 0.00 0.00 0.00 40 940.1
20260509201140 31 192 11.3 20.9 0.00 0.00 0.00 41 940.1
20260509201039 32 204 11.3 20.9 0.00 0.00 0.00 39 940.2
20260509200939 32 157 11.3 19.3 0.00 0.00 0.00 42 940.2
20260509200834 32 204 11.3 19.3 0.00 0.00 0.00 38 940.1
20260509200734 32 201 11.3 19.3 0.00 0.00 0.00 38 940.2
20260509200634 32 211 11.3 19.3 0.00 0.00 0.00 38 940.2
20260509200535 32 163 9.7 19.3 0.00 0.00 0.00 39 940.2
20260509200433 32 173 9.7 17.7 0.00 0.00 0.00 39 940.2
20260509200330 32 177 9.7 17.7 0.00 0.00 0.00 37 940.2
20260509200226 32 174 9.7 20.9 0.00 0.00 0.00 40 940.2
20260509200127 32 199 9.7 20.9 0.00 0.00 0.00 41 940.2
20260509200031 32 160 9.7 20.9 0.00 0.00 0.00 40 940.2
20260509195927 32 188 9.7 20.9 0.00 0.00 0.00 40 940.2
20260509195821 32 161 9.7 20.9 0.00 0.00 0.00 41 940.2
20260509195721 32 186 9.7 20.9 0.00 0.00 0.00 41 940.3
20260509195621 32 167 9.7 20.9 0.00 0.00 0.00 42 940.3
20260509195521 32 177 9.7 20.9 0.00 0.00 0.00 42 940.3
20260509195421 31 196 8.0 20.9 0.00 0.00 0.00 42 940.3
20260509195316 31 190 8.0 20.9 0.00 0.00 0.00 40 940.3
20260509195214 31 156 8.0 20.9 0.00 0.00 0.00 40 940.3
20260509195116 31 114 8.0 20.9 0.00 0.00 0.00 40 940.3
20260509195014 31 134 8.0 20.9 0.00 0.00 0.00 42 940.4
20260509194915 31 160 8.0 20.9 0.00 0.00 0.00 41 940.4
20260509194808 31 178 6.4 17.7 0.00 0.00 0.00 43 940.4
20260509194708 31 203 6.4 17.7 0.00 0.00 0.00 40 940.4
20260509194609 31 190 8.0 17.7 0.00 0.00 0.00 40 940.4
20260509194510 31 179 6.4 17.7 0.00 0.00 0.00 40 940.5
20260509194409 31 226 8.0 17.7 0.00 0.00 0.00 42 940.5
20260509194303 31 256 8.0 17.7 0.00 0.00 0.00 43 940.5
20260509194204 31 205 6.4 17.7 0.00 0.00 0.00 44 940.5
20260509194103 31 207 6.4 17.7 0.00 0.00 0.00 46 940.5
20260509194002 31 243 6.4 17.7 0.00 0.00 0.00 46 940.5
20260509193903 31 246 8.0 17.7 0.00 0.00 0.00 43 940.6
20260509193757 31 215 8.0 17.7 0.00 0.00 0.00 43 940.6
20260509193656 31 231 8.0 17.7 0.00 0.00 0.00 42 940.6
20260509193556 31 227 8.0 17.7 0.00 0.00 0.00 42 940.6
20260509193456 31 171 8.0 17.7 0.00 0.00 0.00 40 940.6
20260509193357 31 150 8.0 17.7 0.00 0.00 0.00 40 940.7
20260509193325 31 134 8.0 17.7 0.00 0.00 0.00 45 940.6
20260509193153 31 215 8.0 17.7 0.00 0.00 0.00 40 940.7
20260509193052 31 159 8.0 17.7 0.00 0.00 0.00 42 940.6
20260509192953 31 169 8.0 17.7 0.00 0.00 0.00 43 940.7
20260509192851 31 153 8.0 17.7 0.00 0.00 0.00 41 940.7
20260509192748 31 177 8.0 17.7 0.00 0.00 0.00 43 940.7
20260509192650 31 163 8.0 16.1 0.00 0.00 0.00 42 940.7
20260509192548 31 112 9.7 22.5 0.00 0.00 0.00 43 940.7
20260509192448 31 195 9.7 22.5 0.00 0.00 0.00 42 940.7
20260509192345 31 197 9.7 22.5 0.00 0.00 0.00 43 940.7
20260509192240 31 175 9.7 22.5 0.00 0.00 0.00 42 940.7
20260509192151 31 142 11.3 22.5 0.00 0.00 0.00 42 940.7
20260509192135 31 161 11.3 22.5 0.00 0.00 0.00 43 940.8
20260509191943 31 195 11.3 22.5 0.00 0.00 0.00 42 940.8
20260509191926 31 185 11.3 22.5 0.00 0.00 0.00 41 940.8
20260509191909 31 170 11.3 22.5 0.00 0.00 0.00 42 940.8
20260509191632 31 178 9.7 22.5 0.00 0.00 0.00 43 940.8
20260509191545 31 186 9.7 20.9 0.00 0.00 0.00 45 940.8
20260509191528 31 189 9.7 20.9 0.00 0.00 0.00 45 940.8
20260509191333 31 223 9.7 20.9 0.00 0.00 0.00 44 940.8
20260509191301 31 169 9.7 20.9 0.00 0.00 0.00 44 940.8
20260509191126 31 178 9.7 20.9 0.00 0.00 0.00 44 940.8
20260509191028 31 181 9.7 19.3 0.00 0.00 0.00 44 940.8
20260509190927 31 180 9.7 22.5 0.00 0.00 0.00 42 940.8
20260509190827 31 227 9.7 22.5 0.00 0.00 0.00 44 940.9
20260509190722 31 190 9.7 22.5 0.00 0.00 0.00 44 940.8
20260509190623 31 192 9.7 22.5 0.00 0.00 0.00 41 940.9
20260509190522 31 177 9.7 22.5 0.00 0.00 0.00 41 940.9
20260509190424 31 190 9.7 22.5 0.00 0.00 0.00 43 940.9
20260509190321 31 171 9.7 22.5 0.00 0.00 0.00 41 940.9
20260509190218 31 199 9.7 22.5 0.00 0.00 0.00 43 940.9
20260509190114 31 182 8.0 22.5 0.00 0.00 0.00 44 941.0
20260509190014 31 167 8.0 22.5 0.00 0.00 0.00 43 940.9
20260509185915 31 191 8.0 14.5 0.00 0.00 0.00 43 940.9
20260509185815 31 257 8.0 16.1 0.00 0.00 0.00 43 940.9
20260509185744 31 198 8.0 19.3 0.00 0.00 0.00 43 941.0
20260509185609 31 184 8.0 19.3 0.00 0.00 0.00 46 940.9
20260509185510 31 194 8.0 19.3 0.00 0.00 0.00 43 941.0
20260509185409 31 191 8.0 19.3 0.00 0.00 0.00 45 941.0
20260509185309 31 217 8.0 19.3 0.00 0.00 0.00 44 941.0
20260509185203 31 196 8.0 19.3 0.00 0.00 0.00 44 941.0
20260509185104 31 154 8.0 19.3 0.00 0.00 0.00 44 941.0
20260509185004 31 142 9.7 19.3 0.00 0.00 0.00 44 941.1
20260509184903 31 155 9.7 19.3 0.00 0.00 0.00 44 941.0
20260509184804 31 181 9.7 19.3 0.00 0.00 0.00 47 941.1
20260509184657 30 178 9.7 19.3 0.00 0.00 0.00 45 941.0
20260509184558 30 153 9.7 19.3 0.00 0.00 0.00 45 941.1
20260509184457 30 154 9.7 22.5 0.00 0.00 0.00 48 941.0
20260509184358 30 206 9.7 22.5 0.00 0.00 0.00 48 941.1
20260509184257 30 211 9.7 22.5 0.00 0.00 0.00 45 941.1
20260509184226 30 195 9.7 22.5 0.00 0.00 0.00 47 941.0
20260509184051 30 178 8.0 22.5 0.00 0.00 0.00 46 941.0
20260509183951 30 231 8.0 22.5 0.00 0.00 0.00 46 941.0
20260509183851 30 234 8.0 22.5 0.00 0.00 0.00 47 941.1
20260509183751 30 173 8.0 22.5 0.00 0.00 0.00 47 941.1
20260509183644 30 240 8.0 22.5 0.00 0.00 0.00 45 941.1
20260509183545 30 227 8.0 22.5 0.00 0.00 0.00 49 941.2
20260509183445 30 186 8.0 19.3 0.00 0.00 0.00 47 941.2
20260509183345 30 211 8.0 19.3 0.00 0.00 0.00 47 941.2
20260509183245 30 156 8.0 19.3 0.00 0.00 0.00 52 941.2
20260509183140 30 180 8.0 20.9 0.00 0.00 0.00 48 941.2
20260509183040 30 211 8.0 20.9 0.00 0.00 0.00 46 941.2
20260509182940 30 192 9.7 20.9 0.00 0.00 0.00 47 941.2
20260509182841 30 190 8.0 20.9 0.00 0.00 0.00 48 941.3
20260509182739 30 202 8.0 20.9 0.00 0.00 0.00 52 941.3
20260509182636 30 163 8.0 20.9 0.00 0.00 0.00 52 941.3
20260509182533 30 202 8.0 20.9 0.00 0.00 0.00 50 941.3
20260509182433 30 190 8.0 20.9 0.00 0.00 0.00 47 941.4
20260509182333 30 174 9.7 20.9 0.00 0.00 0.00 49 941.3
20260509182233 30 207 9.7 20.9 0.00 0.00 0.00 49 941.4
20260509182127 30 197 9.7 20.9 0.00 0.00 0.00 49 941.4
20260509182027 30 200 9.7 20.9 0.00 0.00 0.00 47 941.4
20260509181927 30 165 9.7 20.9 0.00 0.00 0.00 49 941.4
20260509181826 30 148 9.7 20.9 0.00 0.00 0.00 50 941.5
20260509181727 30 167 11.3 20.9 0.00 0.00 0.00 49 941.5
20260509181621 30 167 11.3 20.9 0.00 0.00 0.00 47 941.5
20260509181520 30 160 9.7 20.9 0.00 0.00 0.00 47 941.5
20260509181421 30 190 9.7 20.9 0.00 0.00 0.00 48 941.5
20260509181320 30 141 9.7 20.9 0.00 0.00 0.00 48 941.5
20260509181221 30 165 8.0 20.9 0.00 0.00 0.00 52 941.5
20260509181115 30 187 8.0 19.3 0.00 0.00 0.00 50 941.5
20260509181015 30 190 8.0 19.3 0.00 0.00 0.00 50 941.6
20260509180915 30 178 8.0 19.3 0.00 0.00 0.00 54 941.6
20260509180815 30 232 8.0 19.3 0.00 0.00 0.00 53 941.6
20260509180715 29 242 8.0 14.5 0.00 0.00 0.00 53 941.6
20260509180609 29 219 8.0 16.1 0.00 0.00 0.00 51 941.7
20260509180508 29 175 8.0 16.1 0.00 0.00 0.00 50 941.6
20260509180409 29 250 8.0 16.1 0.00 0.00 0.00 52 941.7
20260509180309 29 205 9.7 16.1 0.00 0.00 0.00 52 941.7
20260509180209 29 248 9.7 16.1 0.00 0.00 0.00 51 941.7
20260509180004 29 161 9.7 17.7 0.00 0.00 0.00 52 941.7
20260509175902 29 209 9.7 17.7 0.00 0.00 0.00 52 941.7
20260509175802 29 157 11.3 17.7 0.00 0.00 0.00 51 941.7
20260509175704 29 167 11.3 17.7 0.00 0.00 0.00 52 941.7
20260509175558 29 192 11.3 17.7 0.00 0.00 0.00 53 941.7
20260509175500 29 191 9.7 17.7 0.00 0.00 0.00 54 941.7
20260509175358 29 181 9.7 17.7 0.00 0.00 0.00 53 941.7
20260509175300 29 178 9.7 17.7 0.00 0.00 0.00 53 941.7
20260509175157 29 191 8.0 17.7 0.00 0.00 0.00 54 941.7
20260509175137 29 163 8.0 17.7 0.00 0.00 0.00 54 941.7
20260509174950 29 117 8.0 16.1 0.00 0.00 0.00 52 941.8
20260509174851 29 163 8.0 16.1 0.00 0.00 0.00 52 941.8
20260509174751 29 153 8.0 16.1 0.00 0.00 0.00 52 941.8
20260509174651 29 127 8.0 16.1 0.00 0.00 0.00 52 941.8
20260509174545 29 140 8.0 16.1 0.00 0.00 0.00 55 941.8
20260509174444 29 173 8.0 16.1 0.00 0.00 0.00 53 941.9
20260509174345 29 182 9.7 16.1 0.00 0.00 0.00 52 941.8
20260509174244 29 144 9.7 16.1 0.00 0.00 0.00 54 941.9
20260509174145 29 191 9.7 16.1 0.00 0.00 0.00 54 941.9
20260509174039 29 198 9.7 16.1 0.00 0.00 0.00 54 941.9
20260509173939 29 182 9.7 16.1 0.00 0.00 0.00 52 942.0
20260509173839 29 188 8.0 16.1 0.00 0.00 0.00 53 941.9
20260509173738 29 159 9.7 16.1 0.00 0.00 0.00 53 941.9
20260509173638 29 168 9.7 16.1 0.00 0.00 0.00 52 941.9
20260509173533 29 190 9.7 19.3 0.00 0.00 0.00 55 941.9
20260509173431 29 184 8.0 19.3 0.00 0.00 0.00 55 942.0
20260509173333 28 207 8.0 19.3 0.00 0.00 0.00 55 942.0
20260509173232 28 186 8.0 19.3 0.00 0.00 0.00 57 942.0
20260509173133 28 147 8.0 19.3 0.00 0.00 0.00 56 942.0
20260509172928 28 176 8.0 19.3 0.00 0.00 0.00 54 942.0
20260509172828 28 198 8.0 19.3 0.00 0.00 0.00 57 942.1
20260509172729 28 199 8.0 19.3 0.00 0.00 0.00 54 942.1
20260509172627 28 175 6.4 19.3 0.00 0.00 0.00 55 942.1
20260509172523 28 192 6.4 14.5 0.00 0.00 0.00 58 942.1
20260509172423 28 262 8.0 14.5 0.00 0.00 0.00 58 942.1
20260509172406 28 149 8.0 19.3 0.00 0.00 0.00 55 942.1
20260509172221 28 184 8.0 19.3 0.00 0.00 0.00 58 942.2
20260509172142 28 182 8.0 19.3 0.00 0.00 0.00 58 942.2
20260509172019 28 207 8.0 19.3 0.00 0.00 0.00 57 942.2
20260509171918 28 171 8.0 19.3 0.00 0.00 0.00 57 942.2
20260509171818 28 187 8.0 19.3 0.00 0.00 0.00 57 942.2
20260509171718 28 230 8.0 19.3 0.00 0.00 0.00 57 942.2
20260509171618 28 230 8.0 19.3 0.00 0.00 0.00 59 942.2
20260509171519 28 222 9.7 19.3 0.00 0.00 0.00 57 942.2
20260509171417 28 211 8.0 19.3 0.00 0.00 0.00 59 942.2
20260509171316 28 183 9.7 19.3 0.00 0.00 0.00 58 942.2
20260509171216 28 167 9.7 19.3 0.00 0.00 0.00 58 942.2
20260509171116 28 161 9.7 19.3 0.00 0.00 0.00 59 942.2
20260509171017 28 134 9.7 19.3 0.00 0.00 0.00 59 942.3
20260509170914 28 186 9.7 19.3 0.00 0.00 0.00 56 942.2
20260509170813 28 148 9.7 19.3 0.00 0.00 0.00 56 942.3
20260509170715 28 146 8.0 19.3 0.00 0.00 0.00 56 942.3
20260509170614 28 146 8.0 19.3 0.00 0.00 0.00 57 942.2
20260509170515 28 158 8.0 19.3 0.00 0.00 0.00 57 942.3
20260509170415 28 139 8.0 16.1 0.00 0.00 0.00 59 942.3
20260509170313 28 188 8.0 16.1 0.00 0.00 0.00 60 942.3
20260509170214 28 189 6.4 16.1 0.00 0.00 0.00 58 942.3
20260509170114 28 178 6.4 16.1 0.00 0.00 0.00 59 942.3
20260509170014 28 154 8.0 16.1 0.00 0.00 0.00 60 942.3
20260509165915 27 169 8.0 16.1 0.00 0.00 0.00 61 942.3
20260509165815 27 207 8.0 16.1 0.00 0.00 0.00 63 942.3
20260509165712 27 267 9.7 16.1 0.00 0.00 0.00 61 942.3
20260509165612 27 242 9.7 16.1 0.00 0.00 0.00 60 942.3
20260509165513 27 196 9.7 17.7 0.00 0.00 0.00 61 942.3
20260509165411 27 222 11.3 17.7 0.00 0.00 0.00 60 942.3
20260509165313 27 220 11.3 19.3 0.00 0.00 0.00 59 942.3
20260509165212 27 204 11.3 19.3 0.00 0.00 0.00 60 942.3
20260509165113 27 202 11.3 19.3 0.00 0.00 0.00 61 942.3
20260509165013 27 202 11.3 19.3 0.00 0.00 0.00 59 942.4
20260509164912 27 199 9.7 19.3 0.00 0.00 0.00 61 942.4
20260509164813 27 184 9.7 19.3 0.00 0.00 0.00 60 942.4
20260509164712 27 200 9.7 19.3 0.00 0.00 0.00 62 942.4
20260509164612 27 194 9.7 19.3 0.00 0.00 0.00 62 942.4
20260509164513 27 184 9.7 19.3 0.00 0.00 0.00 60 942.5
20260509164408 27 186 9.7 19.3 0.00 0.00 0.00 62 942.4
20260509164308 27 202 9.7 19.3 0.00 0.00 0.00 60 942.4
20260509164209 27 165 9.7 19.3 0.00 0.00 0.00 62 942.5
20260509164109 27 167 9.7 20.9 0.00 0.00 0.00 63 942.5
20260509164008 27 178 9.7 20.9 0.00 0.00 0.00 62 942.5
20260509163908 27 183 9.7 20.9 0.00 0.00 0.00 60 942.5
20260509163807 27 192 9.7 20.9 0.00 0.00 0.00 62 942.5
20260509163709 27 203 9.7 20.9 0.00 0.00 0.00 62 942.5
20260509163608 27 179 11.3 20.9 0.00 0.00 0.00 62 942.5
20260509163508 27 197 9.7 20.9 0.00 0.00 0.00 63 942.5
20260509163409 27 192 9.7 20.9 0.00 0.00 0.00 62 942.5
20260509163308 27 189 9.7 20.9 0.00 0.00 0.00 64 942.5
20260509163209 27 203 9.7 20.9 0.00 0.00 0.00 64 942.5
20260509163108 27 190 8.0 19.3 0.00 0.00 0.00 62 942.4
20260509163009 27 188 8.0 17.7 0.00 0.00 0.00 64 942.5
20260509162907 27 184 8.0 17.7 0.00 0.00 0.00 63 942.4
20260509162808 27 208 8.0 17.7 0.00 0.00 0.00 62 942.5
20260509162707 27 180 8.0 17.7 0.00 0.00 0.00 65 942.5
20260509162609 27 185 8.0 14.5 0.00 0.00 0.00 63 942.5
20260509162504 27 227 8.0 14.5 0.00 0.00 0.00 63 942.5
20260509162404 27 223 8.0 16.1 0.00 0.00 0.00 66 942.5
20260509162307 27 235 8.0 17.7 0.00 0.00 0.00 65 942.5
20260509162204 26 249 8.0 17.7 0.00 0.00 0.00 64 942.5
20260509162104 26 229 8.0 17.7 0.00 0.00 0.00 65 942.5
20260509162004 26 196 8.0 17.7 0.00 0.00 0.00 65 942.4
20260509161904 26 210 9.7 17.7 0.00 0.00 0.00 64 942.5
20260509161804 26 222 9.7 20.9 0.00 0.00 0.00 64 942.5
20260509161705 26 187 9.7 20.9 0.00 0.00 0.00 64 942.5
20260509161605 26 169 9.7 20.9 0.00 0.00 0.00 64 942.5
20260509161504 26 221 9.7 20.9 0.00 0.00 0.00 64 942.4
20260509161404 26 159 9.7 20.9 0.00 0.00 0.00 63 942.4
20260509161305 26 237 9.7 20.9 0.00 0.00 0.00 64 942.4
20260509161205 26 209 9.7 20.9 0.00 0.00 0.00 66 942.4
20260509161104 26 192 9.7 20.9 0.00 0.00 0.00 65 942.4
20260509161004 26 220 9.7 20.9 0.00 0.00 0.00 64 942.3
20260509160905 26 159 9.7 20.9 0.00 0.00 0.00 65 942.4
20260509160804 26 224 9.7 20.9 0.00 0.00 0.00 67 942.3
20260509160705 26 207 9.7 20.9 0.00 0.00 0.00 66 942.3
20260509160601 26 207 9.7 20.9 0.00 0.00 0.00 66 942.3
20260509160501 26 238 9.7 20.9 0.00 0.00 0.00 68 942.3
20260509160401 26 242 9.7 20.9 0.00 0.00 0.00 66 942.3
20260509160259 26 190 9.7 20.9 0.00 0.00 0.00 69 942.3
20260509160200 26 229 9.7 20.9 0.00 0.00 0.00 68 942.3
20260509160059 26 239 9.7 20.9 0.00 0.00 0.00 67 942.3
20260509160002 26 251 9.7 20.9 0.00 0.00 0.00 68 942.3
20260509155901 26 242 9.7 20.9 0.00 0.00 0.00 69 942.3
20260509155801 26 220 9.7 20.9 0.00 0.00 0.00 68 942.3
20260509155700 26 269 8.0 17.7 0.00 0.00 0.00 69 942.4
20260509155559 26 190 9.7 17.7 0.00 0.00 0.00 67 942.4
20260509155500 26 207 9.7 20.9 0.00 0.00 0.00 67 942.4
20260509155401 26 198 9.7 20.9 0.00 0.00 0.00 67 942.4
20260509155301 26 209 9.7 20.9 0.00 0.00 0.00 66 942.4
20260509155201 26 225 9.7 20.9 0.00 0.00 0.00 68 942.4
20260509155101 26 242 9.7 20.9 0.00 0.00 0.00 70 942.5
20260509154959 26 200 9.7 20.9 0.00 0.00 0.00 68 942.4
20260509154900 26 249 9.7 20.9 0.00 0.00 0.00 71 942.4
20260509154759 26 255 9.7 20.9 0.00 0.00 0.00 70 942.5
20260509154700 26 250 9.7 20.9 0.00 0.00 0.00 70 942.5
20260509154559 26 203 11.3 20.9 0.00 0.00 0.00 70 942.5
20260509154501 25 200 11.3 22.5 0.00 0.00 0.00 70 942.4
20260509154400 25 265 11.3 22.5 0.00 0.00 0.00 71 942.5
20260509154300 25 274 11.3 22.5 0.00 0.00 0.00 69 942.5
20260509154200 25 269 11.3 24.1 0.00 0.00 0.00 70 942.5
20260509154101 25 220 9.7 24.1 0.00 0.00 0.00 71 942.5
20260509153956 25 240 9.7 24.1 0.00 0.00 0.00 70 942.5
20260509153856 25 245 9.7 24.1 0.00 0.00 0.00 71 942.4
20260509153757 25 236 9.7 24.1 0.00 0.00 0.00 73 942.4
20260509153656 25 210 9.7 24.1 0.00 0.00 0.00 73 942.5
20260509153555 25 259 9.7 24.1 0.00 0.00 0.00 72 942.4
20260509153457 25 238 9.7 24.1 0.00 0.00 0.00 72 942.4
20260509153357 25 254 8.0 24.1 0.00 0.00 0.00 71 942.4
20260509153257 25 217 8.0 24.1 0.00 0.00 0.00 72 942.4
20260509153155 25 186 8.0 19.3 0.00 0.00 0.00 71 942.4
20260509153056 25 202 9.7 19.3 0.00 0.00 0.00 74 942.4
20260509152955 25 257 8.0 19.3 0.00 0.00 0.00 73 942.4
20260509152856 25 232 9.7 19.3 0.00 0.00 0.00 71 942.4
20260509152757 25 229 9.7 20.9 0.00 0.00 0.00 73 942.4
20260509152657 25 173 9.7 20.9 0.00 0.00 0.00 73 942.4
20260509152557 25 221 9.7 20.9 0.00 0.00 0.00 74 942.4
20260509152457 25 198 9.7 20.9 0.00 0.00 0.00 74 942.4
20260509152356 25 241 9.7 20.9 0.00 0.00 0.00 74 942.4
20260509152256 25 221 9.7 22.5 0.00 0.00 0.00 72 942.4
20260509152157 25 204 9.7 22.5 0.00 0.00 0.00 74 942.3
20260509152052 25 240 9.7 22.5 0.00 0.00 0.00 74 942.4
20260509151952 25 227 11.3 22.5 0.00 0.00 0.00 74 942.4
20260509151852 24 243 11.3 22.5 0.00 0.00 0.00 74 942.4
20260509151749 24 222 11.3 22.5 0.00 0.00 0.00 74 942.4
20260509151650 24 229 11.3 22.5 0.00 0.00 0.00 75 942.4
20260509151545 24 234 11.3 22.5 0.00 0.00 0.00 74 942.4
20260509151446 24 263 11.3 22.5 0.00 0.00 0.00 75 942.4
20260509151345 24 224 11.3 22.5 0.00 0.00 0.00 74 942.4
20260509151245 24 222 12.9 25.7 0.00 0.00 0.00 74 942.4
20260509151144 24 208 12.9 25.7 0.00 0.00 0.00 73 942.4
20260509151114 24 198 12.9 25.7 0.00 0.00 0.00 74 942.4
20260509150938 24 183 12.9 25.7 0.00 0.00 0.00 75 942.4
20260509150839 24 190 12.9 25.7 0.00 0.00 0.00 77 942.4
20260509150738 24 242 12.9 25.7 0.00 0.00 0.00 76 942.4
20260509150638 24 276 12.9 25.7 0.00 0.00 0.00 77 942.4
20260509150534 24 259 12.9 25.7 0.00 0.00 0.00 76 942.4
20260509150434 24 211 12.9 25.7 0.00 0.00 0.00 76 942.4
20260509150333 23 248 11.3 25.7 0.00 0.00 0.00 79 942.4
20260509150235 23 257 11.3 22.5 0.00 0.00 0.00 78 942.4
20260509150132 23 236 9.7 22.5 0.00 0.00 0.00 78 942.4
20260509150029 23 234 9.7 19.3 0.00 0.00 0.00 78 942.4
20260509145928 23 258 9.7 19.3 0.00 0.00 0.00 78 942.4
20260509145828 23 236 9.7 19.3 0.00 0.00 0.00 78 942.4
20260509145726 23 259 9.7 19.3 0.00 0.00 0.00 79 942.4
20260509145626 23 261 9.7 19.3 0.00 0.00 0.00 78 942.4
20260509145555 23 250 8.0 19.3 0.00 0.00 0.00 79 942.4
20260509145421 23 215 8.0 19.3 0.00 0.00 0.00 80 942.5
20260509145321 23 252 8.0 19.3 0.00 0.00 0.00 80 942.4
20260509145221 23 233 6.4 19.3 0.00 0.00 0.00 80 942.5
20260509145120 23 234 6.4 16.1 0.00 0.00 0.00 79 942.5
20260509145015 23 205 6.4 14.5 0.00 0.00 0.00 79 942.5
20260509144915 23 250 8.0 16.1 0.00 0.00 0.00 79 942.5
20260509144814 23 220 8.0 17.7 0.00 0.00 0.00 81 942.5
20260509144715 23 240 8.0 17.7 0.00 0.00 0.00 82 942.5
20260509144614 22 230 8.0 17.7 0.00 0.00 0.00 82 942.5
20260509144543 22 253 8.0 17.7 0.00 0.00 0.00 82 942.5
20260509144408 22 195 8.0 17.7 0.00 0.00 0.00 82 942.5
20260509144309 22 315 8.0 17.7 0.00 0.00 0.00 82 942.6
20260509144208 22 221 8.0 17.7 0.00 0.00 0.00 82 942.6
20260509144108 22 234 9.7 17.7 0.00 0.00 0.00 82 942.6
20260509144004 22 243 8.0 17.7 0.00 0.00 0.00 85 942.6
20260509143905 22 263 8.0 17.7 0.00 0.00 0.00 84 942.7
20260509143803 22 257 8.0 17.7 0.00 0.00 0.00 84 942.7
20260509143705 22 246 8.0 17.7 0.00 0.00 0.00 84 942.7
20260509143602 22 238 8.0 17.7 0.00 0.00 0.00 84 942.7
20260509143459 22 207 8.0 17.7 0.00 0.00 0.00 84 942.7
20260509143355 21 215 8.0 17.7 0.00 0.00 0.00 84 942.7
20260509143256 21 235 8.0 17.7 0.00 0.00 0.00 84 942.8
20260509143155 21 180 8.0 17.7 0.00 0.00 0.00 84 942.7
20260509143056 21 220 8.0 17.7 0.00 0.00 0.00 85 942.7
20260509143024 21 244 6.4 17.7 0.00 0.00 0.00 85 942.7
20260509142853 21 240 6.4 17.7 0.00 0.00 0.00 85 942.7
20260509142800 21 230 6.4 16.1 0.00 0.00 0.00 85 942.7
20260509142745 21 255 6.4 16.1 0.00 0.00 0.00 85 942.7
20260509142550 21 252 8.0 16.1 0.00 0.00 0.00 85 942.8
20260509142518 21 257 8.0 16.1 0.00 0.00 0.00 86 942.8
20260509142345 21 232 8.0 14.5 0.00 0.00 0.00 86 942.8
20260509142244 21 252 8.0 14.5 0.00 0.00 0.00 86 942.8
20260509142144 21 248 8.0 14.5 0.00 0.00 0.00 87 942.9
20260509142044 21 230 8.0 14.5 0.00 0.00 0.00 86 942.8
20260509142013 21 250 9.7 16.1 0.00 0.00 0.00 86 942.9
20260509141839 21 236 9.7 16.1 0.00 0.00 0.00 86 942.9
20260509141739 21 221 9.7 16.1 0.00 0.00 0.00 86 942.9
20260509141637 21 218 9.7 16.1 0.00 0.00 0.00 87 942.9
20260509141538 21 217 8.0 16.1 0.00 0.00 0.00 86 942.9
20260509141432 21 186 8.0 16.1 0.00 0.00 0.00 86 942.9
20260509141332 21 188 8.0 16.1 0.00 0.00 0.00 86 942.9
20260509141233 21 183 8.0 16.1 0.00 0.00 0.00 87 942.9
20260509141132 21 186 8.0 16.1 0.00 0.00 0.00 87 942.9
20260509141032 21 199 6.4 14.5 0.00 0.00 0.00 87 942.9
20260509140925 21 178 6.4 14.5 0.00 0.00 0.00 87 942.9
20260509140827 21 163 6.4 14.5 0.00 0.00 0.00 87 942.9
20260509140726 20 208 6.4 12.9 0.00 0.00 0.00 87 942.9
20260509140627 20 211 6.4 12.9 0.00 0.00 0.00 88 942.9
20260509140526 20 197 6.4 12.9 0.00 0.00 0.00 88 942.9
20260509140423 20 238 6.4 14.5 0.00 0.00 0.00 88 942.9
20260509140322 20 260 6.4 14.5 0.00 0.00 0.00 89 942.9
20260509140222 20 222 6.4 14.5 0.00 0.00 0.00 90 942.9
20260509140123 20 246 6.4 14.5 0.00 0.00 0.00 89 942.9
20260509140020 20 233 6.4 14.5 0.00 0.00 0.00 89 942.9
20260509135914 20 236 6.4 16.1 0.00 0.00 0.00 89 942.9
20260509135813 20 238 6.4 16.1 0.00 0.00 0.00 89 942.9
20260509135714 20 206 6.4 16.1 0.00 0.00 0.00 90 942.9
20260509135613 20 223 6.4 16.1 0.00 0.00 0.00 90 942.9
20260509135514 20 204 6.4 16.1 0.00 0.00 0.00 90 942.9
20260509135409 20 217 6.4 16.1 0.00 0.00 0.00 90 943.0
20260509135311 20 238 6.4 16.1 0.00 0.00 0.00 91 943.0
20260509135209 20 238 6.4 16.1 0.00 0.00 0.00 91 943.0
20260509135111 20 196 6.4 16.1 0.00 0.00 0.00 91 943.0
20260509135008 20 232 6.4 16.1 0.00 0.00 0.00 92 943.0
20260509134905 20 202 6.4 12.9 0.00 0.00 0.00 91 942.9
20260509134801 20 244 6.4 12.9 0.00 0.00 0.00 92 942.9
20260509134701 19 225 6.4 12.9 0.00 0.00 0.00 93 942.9
20260509134601 19 250 6.4 12.9 0.00 0.00 0.00 93 942.9
20260509134502 19 227 6.4 12.9 0.00 0.00 0.00 93 942.8
20260509134356 19 227 4.8 12.9 0.00 0.00 0.00 93 942.8
20260509134257 19 223 4.8 12.9 0.00 0.00 0.00 93 942.8
20260509134155 19 239 4.8 11.3 0.00 0.00 0.00 93 942.7
20260509134056 19 256 4.8 11.3 0.00 0.00 0.00 93 942.8
20260509133956 19 251 4.8 11.3 0.00 0.00 0.00 94 942.8
20260509133852 19 247 4.8 11.3 0.00 0.00 0.00 94 942.8
20260509133751 19 244 4.8 11.3 0.00 0.00 0.00 94 942.8
20260509133652 18 221 4.8 11.3 0.00 0.00 0.00 94 942.8
20260509133552 18 220 4.8 11.3 0.00 0.00 0.00 94 942.8
20260509133450 18 229 4.8 12.9 0.00 0.00 0.00 94 942.8
20260509133344 18 203 6.4 16.1 0.00 0.00 0.00 94 942.8
20260509133244 18 234 6.4 16.1 0.00 0.00 0.00 94 942.8
20260509133145 18 254 6.4 16.1 0.00 0.00 0.00 94 942.8
20260509133043 18 226 6.4 16.1 0.00 0.00 0.00 94 942.9
20260509132944 18 218 6.4 16.1 0.00 0.00 0.00 94 942.8
20260509132842 18 246 6.4 16.1 0.00 0.00 0.00 94 942.8
20260509132742 18 243 6.4 16.1 0.00 0.00 0.00 94 942.8
20260509132640 18 239 6.4 16.1 0.00 0.00 0.00 95 942.8
20260509132541 18 209 6.4 16.1 0.00 0.00 0.00 95 942.9
20260509132438 18 247 4.8 16.1 0.00 0.00 0.00 95 942.9
20260509132334 18 236 4.8 12.9 0.00 0.00 0.00 95 942.9
20260509132232 18 242 4.8 12.9 0.00 0.00 0.00 95 942.9
20260509132133 18 234 4.8 12.9 0.00 0.00 0.00 95 942.8
20260509132031 18 271 4.8 9.7 0.00 0.00 0.00 95 942.8
20260509131933 18 238 3.2 9.7 0.00 0.00 0.00 96 942.7
20260509131829 18 241 3.2 6.4 0.00 0.00 0.00 96 942.7
20260509131730 18 269 3.2 6.4 0.00 0.00 0.00 96 942.7
20260509131627 18 246 3.2 6.4 0.00 0.00 0.00 95 942.7
20260509131528 18 249 3.2 6.4 0.00 0.00 0.00 95 942.7
20260509131426 18 238 3.2 6.4 0.00 0.00 0.00 95 942.6
20260509131319 18 225 1.6 6.4 0.00 0.00 0.00 95 942.7
20260509131220 18 198 1.6 6.4 0.00 0.00 0.00 96 942.7
20260509131121 18 201 1.6 6.4 0.00 0.00 0.00 96 942.6
20260509131020 18 234 1.6 6.4 0.00 0.00 0.00 96 942.6
20260509130920 18 244 1.6 4.8 0.00 0.00 0.00 95 942.6
20260509130817 18 244 1.6 4.8 0.00 0.00 0.00 95 942.6
20260509130714 18 238 1.6 4.8 0.00 0.00 0.00 95 942.6
20260509130615 18 244 1.6 3.2 0.00 0.00 0.00 95 942.6
20260509130513 18 244 1.6 3.2 0.00 0.00 0.00 95 942.6
20260509130414 17 244 1.6 3.2 0.00 0.00 0.00 95 942.6
20260509130310 17 244 1.6 3.2 0.00 0.00 0.00 95 942.6
20260509130208 17 244 1.6 3.2 0.00 0.00 0.00 95 942.6
20260509130107 17 244 1.6 3.2 0.00 0.00 0.00 95 942.6
20260509130008 17 244 1.6 3.2 0.00 0.00 0.00 95 942.5
20260509125908 17 244 1.6 3.2 0.00 0.00 0.00 95 942.5
20260509125802 17 244 1.6 3.2 0.00 0.00 0.00 95 942.4
20260509125702 17 244 1.6 4.8 0.00 0.00 0.00 95 942.4
20260509125602 17 257 1.6 4.8 0.00 0.00 0.00 95 942.4
20260509125503 17 257 1.6 4.8 0.00 0.00 0.00 95 942.4
20260509125402 17 257 1.6 4.8 0.00 0.00 0.00 95 942.4
20260509125307 17 208 1.6 4.8 0.00 0.00 0.00 95 942.4
20260509125200 17 208 1.6 4.8 0.00 0.00 0.00 96 942.4
20260509125059 17 208 1.6 4.8 0.00 0.00 0.00 96 942.4
20260509124959 17 208 3.2 4.8 0.00 0.00 0.00 96 942.4
20260509124856 17 208 3.2 4.8 0.00 0.00 0.00 96 942.3
20260509124823 17 208 3.2 6.4 0.00 0.00 0.00 95 942.3
20260509124655 17 200 3.2 6.4 0.00 0.00 0.00 95 942.3
20260509124554 17 218 3.2 8.0 0.00 0.00 0.00 96 942.3
20260509124451 17 233 3.2 8.0 0.00 0.00 0.00 96 942.3
20260509124351 17 229 3.2 8.0 0.00 0.00 0.00 96 942.3
20260509124245 17 239 3.2 8.0 0.00 0.00 0.00 95 942.3
20260509124145 17 213 3.2 8.0 0.00 0.00 0.00 95 942.3
20260509124046 17 246 3.2 8.0 0.00 0.00 0.00 96 942.3
20260509123946 16 250 3.2 8.0 0.00 0.00 0.00 96 942.3
20260509123844 16 250 3.2 8.0 0.00 0.00 0.00 95 942.3
20260509123741 16 249 3.2 8.0 0.00 0.00 0.00 95 942.2
20260509123637 16 230 3.2 8.0 0.00 0.00 0.00 95 942.3
20260509123539 16 244 3.2 4.8 0.00 0.00 0.00 95 942.3
20260509123437 16 217 3.2 4.8 0.00 0.00 0.00 95 942.3
20260509123338 16 211 3.2 4.8 0.00 0.00 0.00 95 942.3
20260509123308 16 190 3.2 4.8 0.00 0.00 0.00 95 942.3
20260509123136 16 198 3.2 4.8 0.00 0.00 0.00 95 942.4
20260509123042 16 207 3.2 6.4 0.00 0.00 0.00 95 942.3
20260509123027 16 207 3.2 6.4 0.00 0.00 0.00 95 942.3
20260509122832 16 207 3.2 6.4 0.00 0.00 0.00 95 942.3
20260509122801 16 207 3.2 6.4 0.00 0.00 0.00 95 942.3
20260509122625 15 207 3.2 6.4 0.00 0.00 0.00 94 942.3
20260509122526 15 207 3.2 6.4 0.00 0.00 0.00 94 942.2
20260509122425 15 210 3.2 6.4 0.00 0.00 0.00 94 942.3
20260509122326 15 195 3.2 6.4 0.00 0.00 0.00 94 942.2
20260509122220 15 201 1.6 6.4 0.00 0.00 0.00 94 942.2
20260509122120 15 201 1.6 6.4 0.00 0.00 0.00 94 942.2
20260509122020 15 221 1.6 4.8 0.00 0.00 0.00 94 942.3
20260509121919 15 221 1.6 4.8 0.00 0.00 0.00 94 942.3
20260509121821 15 283 1.6 4.8 0.00 0.00 0.00 93 942.3
20260509121713 15 283 1.6 3.2 0.00 0.00 0.00 93 942.3
20260509121615 15 283 1.6 3.2 0.00 0.00 0.00 93 942.3
20260509121513 15 283 1.6 3.2 0.00 0.00 0.00 93 942.3
20260509121414 15 283 1.6 4.8 0.00 0.00 0.00 93 942.3
20260509121314 15 283 1.6 4.8 0.00 0.00 0.00 93 942.3
20260509121242 15 283 1.6 4.8 0.00 0.00 0.00 93 942.3
20260509121108 15 283 1.6 4.8 0.00 0.00 0.00 93 942.3
20260509121008 15 283 1.6 4.8 0.00 0.00 0.00 93 942.3
20260509120907 15 283 1.6 4.8 0.00 0.00 0.00 93 942.2
20260509120808 15 25 1.6 4.8 0.00 0.00 0.00 93 942.3
20260509120708 15 25 1.6 4.8 0.00 0.00 0.00 93 942.3
20260509120606 15 25 1.6 4.8 0.00 0.00 0.00 93 942.3
20260509120505 15 25 1.6 4.8 0.00 0.00 0.00 93 942.3
20260509120404 15 271 1.6 3.2 0.00 0.00 0.00 93 942.3
20260509120302 16 271 0.0 3.2 0.00 0.00 0.00 93 942.3
20260509120158 16 271 0.0 3.2 0.00 0.00 0.00 93 942.3
20260509120055 16 271 1.6 3.2 0.00 0.00 0.00 93 942.3
20260509115956 16 271 1.6 4.8 0.00 0.00 0.00 93 942.3
20260509115856 16 271 1.6 4.8 0.00 0.00 0.00 93 942.2
20260509115756 16 271 1.6 4.8 0.00 0.00 0.00 93 942.2
20260509115651 16 271 1.6 4.8 0.00 0.00 0.00 93 942.1
20260509115550 16 271 1.6 4.8 0.00 0.00 0.00 93 942.1
20260509115450 16 271 1.6 4.8 0.00 0.00 0.00 93 942.1
20260509115349 16 271 1.6 4.8 0.00 0.00 0.00 93 942.1
20260509115250 16 271 3.2 4.8 0.00 0.00 0.00 93 942.0
20260509115147 16 271 3.2 4.8 0.00 0.00 0.00 93 942.1
20260509115048 16 282 1.6 4.8 0.00 0.00 0.00 93 942.1
20260509114948 16 257 1.6 4.8 0.00 0.00 0.00 93 942.1
20260509114846 16 253 1.6 4.8 0.00 0.00 0.00 94 942.1
20260509114744 16 249 1.6 4.8 0.00 0.00 0.00 93 942.1
20260509114712 16 240 1.6 4.8 0.00 0.00 0.00 93 942.1
20260509114540 16 190 1.6 3.2 0.00 0.00 0.00 93 942.0
20260509114439 16 190 1.6 3.2 0.00 0.00 0.00 93 942.0
20260509114341 16 190 1.6 3.2 0.00 0.00 0.00 93 942.0
20260509114238 16 190 1.6 4.8 0.00 0.00 0.00 93 941.9
20260509114139 16 190 1.6 4.8 0.00 0.00 0.00 93 941.9
20260509114037 16 134 1.6 4.8 0.00 0.00 0.00 93 941.9
20260509113933 16 134 1.6 4.8 0.00 0.00 0.00 93 941.9
20260509113834 16 134 1.6 4.8 0.00 0.00 0.00 93 941.8
20260509113732 16 134 1.6 4.8 0.00 0.00 0.00 93 941.9
20260509113701 16 134 1.6 4.8 0.00 0.00 0.00 93 941.8
20260509113525 16 134 1.6 4.8 0.00 0.00 0.00 93 941.8
20260509113427 16 134 1.6 4.8 0.00 0.00 0.00 93 941.8
20260509113325 16 134 1.6 4.8 0.00 0.00 0.00 93 941.8
20260509113226 16 134 1.6 4.8 0.00 0.00 0.00 93 941.7
20260509113121 16 134 1.6 4.8 0.00 0.00 0.00 92 941.7
20260509113020 16 123 1.6 4.8 0.00 0.00 0.00 92 941.7
20260509112921 16 148 1.6 4.8 0.00 0.00 0.00 92 941.7
20260509112819 16 154 1.6 3.2 0.00 0.00 0.00 93 941.7
20260509112720 16 154 1.6 3.2 0.00 0.00 0.00 92 941.6
20260509112615 16 154 1.6 3.2 0.00 0.00 0.00 92 941.6
20260509112513 16 154 1.6 3.2 0.00 0.00 0.00 92 941.5
20260509112415 16 154 1.6 3.2 0.00 0.00 0.00 93 941.5
20260509112314 16 154 1.6 3.2 0.00 0.00 0.00 92 941.5
20260509112214 16 154 1.6 3.2 0.00 0.00 0.00 92 941.5
20260509112114 16 154 1.6 3.2 0.00 0.00 0.00 93 941.5
20260509112012 16 154 1.6 4.8 0.00 0.00 0.00 92 941.5
20260509111911 16 154 3.2 4.8 0.00 0.00 0.00 92 941.5
20260509111811 16 154 3.2 6.4 0.00 0.00 0.00 92 941.5
20260509111708 16 154 3.2 6.4 0.00 0.00 0.00 92 941.5
20260509111602 16 154 3.2 6.4 0.00 0.00 0.00 92 941.5
20260509111501 16 154 3.2 6.4 0.00 0.00 0.00 92 941.5
20260509111402 16 138 3.2 6.4 0.00 0.00 0.00 92 941.6
20260509111302 16 148 3.2 6.4 0.00 0.00 0.00 92 941.5
20260509111202 16 148 3.2 6.4 0.00 0.00 0.00 92 941.5
20260509111056 16 138 3.2 6.4 0.00 0.00 0.00 92 941.5
20260509110956 16 122 3.2 6.4 0.00 0.00 0.00 92 941.6
20260509110855 16 127 3.2 6.4 0.00 0.00 0.00 92 941.6
20260509110755 16 115 3.2 6.4 0.00 0.00 0.00 92 941.5
20260509110656 16 111 1.6 6.4 0.00 0.00 0.00 92 941.6
20260509110625 16 111 1.6 4.8 0.00 0.00 0.00 92 941.5
20260509110454 16 122 1.6 4.8 0.00 0.00 0.00 92 941.5
20260509110353 16 122 1.6 4.8 0.00 0.00 0.00 92 941.5
20260509110252 16 122 3.2 4.8 0.00 0.00 0.00 92 941.5
20260509110150 16 122 3.2 4.8 0.00 0.00 0.00 92 941.5
20260509110049 16 122 3.2 6.4 0.00 0.00 0.00 92 941.5
20260509105948 16 122 3.2 6.4 0.00 0.00 0.00 92 941.5
20260509105849 16 122 3.2 6.4 0.00 0.00 0.00 92 941.5
20260509105745 16 122 3.2 6.4 0.00 0.00 0.00 92 941.5
20260509105644 16 119 3.2 6.4 0.00 0.00 0.00 92 941.5
20260509105612 16 121 3.2 6.4 0.00 0.00 0.00 92 941.4
20260509105442 16 121 3.2 6.4 0.00 0.00 0.00 92 941.4
20260509105339 16 122 3.2 6.4 0.00 0.00 0.00 92 941.3
20260509105241 17 121 3.2 6.4 0.00 0.00 0.00 92 941.3
20260509105138 17 141 3.2 9.7 0.00 0.00 0.00 92 941.3
20260509105034 17 130 3.2 9.7 0.00 0.00 0.00 92 941.3
20260509104931 17 130 4.8 9.7 0.00 0.00 0.00 92 941.3
20260509104832 17 130 4.8 9.7 0.00 0.00 0.00 92 941.3
20260509104731 17 144 4.8 9.7 0.00 0.00 0.00 92 941.3
20260509104632 17 128 4.8 9.7 0.00 0.00 0.00 92 941.3
20260509104525 17 140 4.8 9.7 0.00 0.00 0.00 92 941.3
20260509104426 17 134 4.8 9.7 0.00 0.00 0.00 92 941.3
20260509104326 17 138 4.8 9.7 0.00 0.00 0.00 92 941.3
20260509104225 17 132 4.8 9.7 0.00 0.00 0.00 92 941.4
20260509104127 17 98 4.8 9.7 0.00 0.00 0.00 92 941.4
20260509104020 17 120 4.8 11.3 0.00 0.00 0.00 92 941.4
20260509103920 17 88 4.8 11.3 0.00 0.00 0.00 92 941.4
20260509103819 17 118 4.8 11.3 0.00 0.00 0.00 92 941.4
20260509103720 17 103 6.4 11.3 0.00 0.00 0.00 92 941.4
20260509103620 17 107 6.4 11.3 0.00 0.00 0.00 92 941.4
20260509103548 17 123 6.4 11.3 0.00 0.00 0.00 92 941.5
20260509103413 17 120 6.4 11.3 0.00 0.00 0.00 92 941.5
20260509103314 17 132 6.4 11.3 0.00 0.00 0.00 92 941.5
20260509103214 17 102 6.4 14.5 0.00 0.00 0.00 92 941.5
20260509103114 17 126 6.4 14.5 0.00 0.00 0.00 92 941.5
20260509103042 17 126 6.4 14.5 0.00 0.00 0.00 92 941.5
20260509102909 17 109 6.4 14.5 0.00 0.00 0.00 92 941.5
20260509102809 17 120 8.0 14.5 0.00 0.00 0.00 92 941.5
20260509102710 17 110 8.0 14.5 0.00 0.00 0.00 92 941.5
20260509102608 17 100 8.0 14.5 0.00 0.00 0.00 92 941.5
20260509102504 17 135 8.0 14.5 0.00 0.00 0.00 92 941.5
20260509102401 17 127 8.0 14.5 0.00 0.00 0.00 92 941.5
20260509102301 17 117 8.0 14.5 0.00 0.00 0.00 92 941.6
20260509102201 17 116 8.0 12.9 0.00 0.00 0.00 92 941.7
20260509102102 17 111 8.0 12.9 0.00 0.00 0.00 92 941.6
20260509101956 17 109 8.0 12.9 0.00 0.00 0.00 92 941.6
20260509101856 17 120 8.0 12.9 0.00 0.00 0.00 92 941.6
20260509101756 17 103 6.4 12.9 0.00 0.00 0.00 92 941.6
20260509101657 17 127 6.4 12.9 0.00 0.00 0.00 92 941.6
20260509101556 17 111 6.4 12.9 0.00 0.00 0.00 92 941.7
20260509101450 17 123 4.8 12.9 0.00 0.00 0.00 92 941.6
20260509101350 17 130 4.8 12.9 0.00 0.00 0.00 92 941.6
20260509101250 17 105 4.8 11.3 0.00 0.00 0.00 91 941.6
20260509101149 17 136 4.8 9.7 0.00 0.00 0.00 91 941.6
20260509101050 17 126 3.2 9.7 0.00 0.00 0.00 91 941.6
20260509101019 17 160 3.2 9.7 0.00 0.00 0.00 91 941.7
20260509100848 17 103 3.2 9.7 0.00 0.00 0.00 91 941.7
20260509100745 17 120 3.2 8.0 0.00 0.00 0.00 91 941.7
20260509100645 17 128 3.2 8.0 0.00 0.00 0.00 91 941.7
20260509100544 17 149 3.2 8.0 0.00 0.00 0.00 91 941.7
20260509100443 17 142 4.8 8.0 0.00 0.00 0.00 91 941.8
20260509100341 17 111 4.8 8.0 0.00 0.00 0.00 91 941.8
20260509100241 17 153 4.8 8.0 0.00 0.00 0.00 91 941.8
20260509100140 17 152 4.8 8.0 0.00 0.00 0.00 91 941.8
20260509100038 17 144 4.8 8.0 0.00 0.00 0.00 91 941.8
20260509095934 17 152 4.8 8.0 0.00 0.00 0.00 91 941.8
20260509095831 17 134 4.8 8.0 0.00 0.00 0.00 91 941.8
20260509095731 17 155 3.2 8.0 0.00 0.00 0.00 90 941.8
20260509095631 17 146 3.2 8.0 0.00 0.00 0.00 90 941.8
20260509095532 17 149 3.2 6.4 0.00 0.00 0.00 90 941.8
20260509095431 17 165 3.2 6.4 0.00 0.00 0.00 90 941.7
20260509095330 17 182 3.2 6.4 0.00 0.00 0.00 90 941.6
20260509095229 17 187 1.6 6.4 0.00 0.00 0.00 90 941.6
20260509095128 17 193 1.6 6.4 0.00 0.00 0.00 89 941.6
20260509095026 17 171 1.6 6.4 0.00 0.00 0.00 89 941.7
20260509094920 17 163 1.6 4.8 0.00 0.00 0.00 89 941.7
20260509094819 17 163 1.6 4.8 0.00 0.00 0.00 89 941.7
20260509094720 17 163 1.6 4.8 0.00 0.00 0.00 89 941.7
20260509094620 17 146 1.6 4.8 0.00 0.00 0.00 89 941.8
20260509094520 17 146 1.6 4.8 0.00 0.00 0.00 89 941.8
20260509094415 17 146 3.2 4.8 0.00 0.00 0.00 89 941.8
20260509094315 17 155 3.2 6.4 0.00 0.00 0.00 89 941.8
20260509094217 17 132 3.2 8.0 0.00 0.00 0.00 89 941.8
20260509094116 17 132 3.2 9.7 0.00 0.00 0.00 89 941.7
20260509094014 17 132 4.8 9.7 0.00 0.00 0.00 89 941.7
20260509093907 17 140 4.8 11.3 0.00 0.00 0.00 89 941.7
20260509093807 17 158 6.4 16.1 0.00 0.00 0.00 89 941.7
20260509093707 17 140 6.4 16.1 0.00 0.00 0.00 89 941.7
20260509093608 17 125 6.4 16.1 0.00 0.00 0.00 88 941.7
20260509093508 17 130 8.0 16.1 0.00 0.00 0.00 88 941.7
20260509093438 17 108 8.0 16.1 0.00 0.00 0.00 88 941.6
20260509093301 17 120 9.7 16.1 0.00 0.00 0.00 88 941.7
20260509093214 17 112 9.7 16.1 0.00 0.00 0.00 88 941.7
20260509093158 18 108 9.7 16.1 0.00 0.00 0.00 88 941.6
20260509093002 18 127 9.7 16.1 0.00 0.00 0.00 88 941.6
20260509092931 18 96 11.3 16.1 0.00 0.00 0.00 88 941.6
20260509092757 18 131 9.7 16.1 0.00 0.00 0.00 88 941.6
20260509092657 18 125 9.7 16.1 0.00 0.00 0.00 88 941.6
20260509092558 18 121 9.7 16.1 0.00 0.00 0.00 88 941.6
20260509092456 18 119 9.7 16.1 0.00 0.00 0.00 88 941.7
20260509092352 18 109 9.7 17.7 0.00 0.00 0.00 88 941.7
20260509092249 18 101 9.7 17.7 0.00 0.00 0.00 87 941.7
20260509092149 18 89 11.3 17.7 0.00 0.00 0.00 87 941.7
20260509092048 18 105 11.3 17.7 0.00 0.00 0.00 87 941.7
20260509091950 18 100 11.3 17.7 0.00 0.00 0.00 87 941.7
20260509091929 18 125 11.3 17.7 0.00 0.00 0.00 87 941.6
20260509091745 18 93 11.3 17.7 0.00 0.00 0.00 87 941.6
20260509091645 18 126 11.3 17.7 0.00 0.00 0.00 87 941.6
20260509091546 18 145 11.3 17.7 0.00 0.00 0.00 87 941.5
20260509091444 18 120 11.3 17.7 0.00 0.00 0.00 87 941.5
20260509091340 18 122 9.7 17.7 0.00 0.00 0.00 87 941.5
20260509091237 18 146 11.3 19.3 0.00 0.00 0.00 86 941.5
20260509091137 18 150 11.3 19.3 0.00 0.00 0.00 86 941.5
20260509091038 18 139 11.3 19.3 0.00 0.00 0.00 86 941.5
20260509090938 18 122 11.3 20.9 0.00 0.00 0.00 86 941.5
20260509090832 18 116 11.3 20.9 0.00 0.00 0.00 86 941.5
20260509090732 18 96 11.3 20.9 0.00 0.00 0.00 86 941.6
20260509090632 18 137 11.3 20.9 0.00 0.00 0.00 86 941.6
20260509090531 18 106 11.3 20.9 0.00 0.00 0.00 86 941.7
20260509090432 18 113 11.3 20.9 0.00 0.00 0.00 86 941.7
20260509090326 18 103 11.3 20.9 0.00 0.00 0.00 86 941.7
20260509090225 18 123 11.3 20.9 0.00 0.00 0.00 86 941.7
20260509090126 18 148 11.3 20.9 0.00 0.00 0.00 86 941.8
20260509090027 18 128 11.3 20.9 0.00 0.00 0.00 86 941.7
20260509085926 18 129 11.3 20.9 0.00 0.00 0.00 85 941.8
20260509085820 18 115 11.3 20.9 0.00 0.00 0.00 85 941.7
20260509085719 18 119 11.3 19.3 0.00 0.00 0.00 85 941.8
20260509085620 18 130 11.3 19.3 0.00 0.00 0.00 85 941.7
20260509085519 18 127 11.3 19.3 0.00 0.00 0.00 85 941.8
20260509085438 18 109 11.3 19.3 0.00 0.00 0.00 85 941.8
20260509085316 18 117 11.3 19.3 0.00 0.00 0.00 85 941.8
20260509085217 18 112 11.3 19.3 0.00 0.00 0.00 85 941.9
20260509085117 18 122 11.3 19.3 0.00 0.00 0.00 85 942.0
20260509085016 18 118 11.3 19.3 0.00 0.00 0.00 85 942.0
20260509084914 18 132 9.7 19.3 0.00 0.00 0.00 85 942.0
20260509084813 18 124 9.7 19.3 0.00 0.00 0.00 85 942.0
20260509084712 18 113 11.3 19.3 0.00 0.00 0.00 85 941.9
20260509084614 19 104 11.3 19.3 0.00 0.00 0.00 85 942.0
20260509084512 19 131 12.9 19.3 0.00 0.00 0.00 85 941.9
20260509084411 19 111 12.9 19.3 0.00 0.00 0.00 85 941.9
20260509084312 19 139 12.9 20.9 0.00 0.00 0.00 85 942.0
20260509084211 19 113 12.9 24.1 0.00 0.00 0.00 85 942.0
20260509084112 19 123 12.9 24.1 0.00 0.00 0.00 85 942.0
20260509084012 19 86 14.5 24.1 0.00 0.00 0.00 85 942.0
20260509083912 19 96 14.5 24.1 0.00 0.00 0.00 86 942.1
20260509083811 19 111 14.5 24.1 0.00 0.00 0.00 85 942.1
20260509083712 19 96 14.5 24.1 0.00 0.00 0.00 85 942.1
20260509083609 19 126 14.5 24.1 0.00 0.00 0.00 85 942.2
20260509083510 19 91 14.5 24.1 0.00 0.00 0.00 85 942.2
20260509083434 19 96 14.5 24.1 0.00 0.00 0.00 85 942.2
20260509083309 19 123 14.5 24.1 0.00 0.00 0.00 85 942.3
20260509083208 19 107 14.5 24.1 0.00 0.00 0.00 85 942.3
20260509083110 19 124 14.5 24.1 0.00 0.00 0.00 85 942.3
20260509083010 19 117 14.5 24.1 0.00 0.00 0.00 85 942.3
20260509082909 19 111 16.1 24.1 0.00 0.00 0.00 86 942.3
20260509082809 19 108 14.5 24.1 0.00 0.00 0.00 86 942.3
20260509082709 19 145 14.5 24.1 0.00 0.00 0.00 86 942.3
20260509082609 19 133 14.5 24.1 0.00 0.00 0.00 86 942.3
20260509082509 19 75 16.1 24.1 0.00 0.00 0.00 86 942.4
20260509082409 19 140 14.5 24.1 0.00 0.00 0.00 86 942.5
20260509082309 19 102 16.1 24.1 0.00 0.00 0.00 86 942.5
20260509082209 19 91 16.1 27.4 0.00 0.00 0.00 86 942.6
20260509082109 19 111 16.1 27.4 0.00 0.00 0.00 86 942.6
20260509082009 19 81 16.1 27.4 0.00 0.00 0.00 87 942.7
20260509081909 20 90 14.5 27.4 0.00 0.00 0.00 87 942.7
20260509081810 20 66 16.1 27.4 0.00 0.00 0.00 87 942.6
20260509081705 20 86 14.5 27.4 0.00 0.00 0.00 87 942.6
20260509081605 20 91 14.5 27.4 0.00 0.00 0.00 87 942.6
20260509081505 20 103 14.5 27.4 0.00 0.00 0.00 87 942.5
20260509081405 20 111 16.1 27.4 0.00 0.00 0.00 87 942.5
20260509081305 20 99 14.5 27.4 0.00 0.00 0.00 87 942.5
20260509081205 20 95 14.5 24.1 0.00 0.00 0.00 88 942.5
20260509081105 20 115 12.9 24.1 0.00 0.00 0.00 89 942.5
20260509081006 20 86 12.9 24.1 0.00 0.00 0.00 90 942.6
20260509080906 20 95 12.9 24.1 0.00 0.00 0.00 90 942.6
20260509080805 20 63 12.9 24.1 0.00 0.00 0.00 90 942.7
20260509080704 20 96 12.9 24.1 0.00 0.00 0.00 91 942.7
20260509080605 20 82 11.3 24.1 0.00 0.00 0.00 91 942.7
20260509080506 20 69 11.3 24.1 0.00 0.00 0.00 91 942.7
20260509080405 20 80 11.3 24.1 0.00 0.00 0.00 91 942.7
20260509080305 20 84 11.3 20.9 0.00 0.00 0.00 92 942.7
20260509080206 20 80 11.3 20.9 0.00 0.00 0.00 92 942.7
20260509080104 20 71 11.3 20.9 0.00 0.00 0.00 92 942.7
20260509080006 20 65 9.7 19.3 0.00 0.00 0.00 92 942.8
20260509075906 20 80 9.7 17.7 0.00 0.00 0.00 92 942.7
20260509075803 20 54 9.7 17.7 0.00 0.00 0.00 92 942.8
20260509075702 20 66 9.7 17.7 0.00 0.00 0.00 92 942.7
20260509075602 20 61 9.7 17.7 0.00 0.00 0.00 93 942.6
20260509075501 20 86 9.7 17.7 0.00 0.00 0.00 93 942.6
20260509075401 20 41 9.7 17.7 0.00 0.00 0.00 93 942.5
20260509075305 20 83 9.7 17.7 0.00 0.00 0.00 93 942.4
20260509075201 20 90 9.7 17.7 0.00 0.00 0.00 93 942.4
20260509075102 20 74 9.7 17.7 0.00 0.00 0.00 93 942.4
20260509075002 20 92 9.7 17.7 0.00 0.00 0.00 93 942.4
20260509074901 20 93 9.7 17.7 0.00 0.00 0.00 93 942.5
20260509074801 20 94 9.7 17.7 0.00 0.00 0.00 93 942.5
20260509074701 20 87 11.3 19.3 0.00 0.00 0.00 93 942.6
20260509074602 20 99 11.3 20.9 0.00 0.00 0.00 93 942.5
20260509074502 20 90 11.3 22.5 0.00 0.00 0.00 93 942.5
20260509074401 20 81 11.3 22.5 0.00 0.00 0.00 93 942.5
20260509074302 20 84 11.3 22.5 0.00 0.00 0.00 93 942.5
20260509074201 20 90 11.3 22.5 0.00 0.00 0.00 93 942.5
20260509074101 20 68 11.3 22.5 0.00 0.00 0.00 93 942.4
20260509074002 20 69 11.3 22.5 0.00 0.00 0.00 93 942.5
20260509073857 20 65 11.3 22.5 0.00 0.00 0.00 93 942.4
20260509073757 20 92 11.3 22.5 0.00 0.00 0.00 93 942.5
20260509073657 20 71 11.3 25.7 0.00 0.00 0.00 93 942.4
20260509073557 20 101 11.3 25.7 0.00 0.00 0.00 93 942.4
20260509073456 20 74 11.3 25.7 0.00 0.00 0.00 93 942.4
20260509073357 20 66 11.3 25.7 0.00 0.00 0.00 93 942.4
20260509073258 20 84 11.3 25.7 0.00 0.00 0.00 93 942.5
20260509073158 20 66 11.3 25.7 0.00 0.00 0.00 93 942.6
20260509073058 20 70 11.3 25.7 0.00 0.00 0.00 93 942.7
20260509072956 20 84 11.3 25.7 0.00 0.00 0.00 94 942.8
20260509072929 20 51 11.3 25.7 0.00 0.00 0.00 94 942.8
20260509072756 20 55 11.3 25.7 0.00 0.00 0.00 94 942.8
20260509072658 20 69 11.3 24.1 0.00 0.00 0.00 94 942.8
20260509072557 20 71 12.9 20.9 0.00 0.00 0.00 94 942.8
20260509072458 20 71 12.9 22.5 0.00 0.00 0.00 94 942.8
20260509072357 20 83 12.9 22.5 0.00 0.00 0.00 94 942.9
20260509072257 20 44 12.9 22.5 0.00 0.00 0.00 94 942.9
20260509072157 20 63 12.9 22.5 0.00 0.00 0.00 94 942.9
20260509072058 20 44 12.9 22.5 0.00 0.00 0.00 94 943.0